| time (UTC) | temp F | wind direction | speed MPH | gust MPH | rain 1hr in | rain 24hr in | rain mn in | humidity % | barometer mb |
| 20260906220240 | 99 | 147 | 8.0 | 11.0 | 0.00 | 0.00 | 0.00 | 41 | 1013.5 |
| 20260906220039 | 99 | 165 | 11.0 | 14.0 | 0.00 | 0.00 | 0.00 | 41 | 1013.5 |
| 20260906215837 | 99 | 163 | 10.0 | 13.0 | 0.00 | 0.00 | 0.00 | 40 | 1013.5 |
| 20260906215627 | 99 | 146 | 8.0 | 13.0 | 0.00 | 0.00 | 0.00 | 41 | 1013.7 |
| 20260906215444 | 98 | 156 | 6.0 | 9.0 | 0.00 | 0.00 | 0.00 | 41 | 1013.6 |
| 20260906215222 | 98 | 111 | 7.0 | 11.0 | 0.00 | 0.00 | 0.00 | 42 | 1013.8 |
| 20260906215021 | 98 | 138 | 9.0 | 14.0 | 0.00 | 0.00 | 0.00 | 41 | 1013.7 |
| 20260906214819 | 98 | 97 | 8.0 | 13.0 | 0.00 | 0.00 | 0.00 | 41 | 1013.9 |
| 20260906214618 | 100 | 112 | 11.0 | 14.0 | 0.00 | 0.00 | 0.00 | 41 | 1013.9 |
| 20260906214416 | 99 | 126 | 11.0 | 16.0 | 0.00 | 0.00 | 0.00 | 41 | 1013.8 |
| 20260906214225 | 101 | 115 | 7.0 | 10.0 | 0.00 | 0.00 | 0.00 | 40 | 1013.7 |
| 20260906214024 | 100 | 148 | 5.0 | 8.0 | 0.00 | 0.00 | 0.00 | 40 | 1013.8 |
| 20260906213822 | 99 | 111 | 3.0 | 6.0 | 0.00 | 0.00 | 0.00 | 41 | 1013.7 |
| 20260906213622 | 100 | 102 | 10.0 | 13.0 | 0.00 | 0.00 | 0.00 | 41 | 1013.8 |
| 20260906213419 | 99 | 101 | 6.0 | 11.0 | 0.00 | 0.00 | 0.00 | 41 | 1013.8 |
| 20260906213218 | 99 | 110 | 5.0 | 8.0 | 0.00 | 0.00 | 0.00 | 41 | 1013.9 |
| 20260906213036 | 98 | 126 | 8.0 | 11.0 | 0.00 | 0.00 | 0.00 | 41 | 1013.9 |
| 20260906212825 | 100 | 127 | 9.0 | 14.0 | 0.00 | 0.00 | 0.00 | 40 | 1013.9 |
| 20260906212623 | 99 | 75 | 8.0 | 11.0 | 0.00 | 0.00 | 0.00 | 39 | 1013.9 |
| 20260906212422 | 100 | 82 | 9.0 | 13.0 | 0.00 | 0.00 | 0.00 | 39 | 1014.1 |
| 20260906212241 | 100 | 115 | 11.0 | 18.0 | 0.00 | 0.00 | 0.00 | 40 | 1013.8 |
| 20260906212019 | 100 | 105 | 5.0 | 7.0 | 0.00 | 0.00 | 0.00 | 41 | 1014.0 |
| 20260906211818 | 100 | 140 | 3.0 | 5.0 | 0.00 | 0.00 | 0.00 | 41 | 1014.3 |
| 20260906211616 | 99 | 131 | 6.0 | 11.0 | 0.00 | 0.00 | 0.00 | 41 | 1014.2 |
| 20260906211426 | 98 | 140 | 8.0 | 13.0 | 0.00 | 0.00 | 0.00 | 42 | 1014.0 |
| 20260906211225 | 99 | 95 | 6.0 | 10.0 | 0.00 | 0.00 | 0.00 | 40 | 1014.1 |
| 20260906211023 | 98 | 109 | 7.0 | 13.0 | 0.00 | 0.00 | 0.00 | 41 | 1014.1 |
| 20260906210820 | 99 | 113 | 11.0 | 14.0 | 0.00 | 0.00 | 0.00 | 40 | 1014.1 |
| 20260906210619 | 100 | 106 | 10.0 | 15.0 | 0.00 | 0.00 | 0.00 | 40 | 1014.2 |
| 20260906210438 | 101 | 142 | 9.0 | 16.0 | 0.00 | 0.00 | 0.00 | 40 | 1014.4 |
| 20260906210236 | 100 | 83 | 7.0 | 10.0 | 0.00 | 0.00 | 0.00 | 40 | 1014.4 |
| 20260906210025 | 100 | 90 | 7.0 | 10.0 | 0.00 | 0.00 | 0.00 | 41 | 1014.3 |
| 20260906205823 | 98 | 107 | 9.0 | 11.0 | 0.00 | 0.00 | 0.00 | 42 | 1014.3 |
| 20260906205622 | 99 | 111 | 13.0 | 17.0 | 0.00 | 0.00 | 0.00 | 42 | 1014.4 |
| 20260906205421 | 99 | 116 | 10.0 | 15.0 | 0.00 | 0.00 | 0.00 | 41 | 1014.5 |
| 20260906205220 | 99 | 86 | 6.0 | 9.0 | 0.00 | 0.00 | 0.00 | 40 | 1014.5 |
| 20260906205018 | 99 | 75 | 10.0 | 14.0 | 0.00 | 0.00 | 0.00 | 40 | 1014.5 |
| 20260906204817 | 100 | 103 | 10.0 | 17.0 | 0.00 | 0.00 | 0.00 | 39 | 1014.6 |
| 20260906204625 | 100 | 119 | 10.0 | 13.0 | 0.00 | 0.00 | 0.00 | 39 | 1014.6 |
| 20260906204424 | 99 | 136 | 6.0 | 11.0 | 0.00 | 0.00 | 0.00 | 41 | 1014.6 |
| 20260906204222 | 98 | 112 | 8.0 | 11.0 | 0.00 | 0.00 | 0.00 | 42 | 1014.7 |
| 20260906204020 | 98 | 140 | 11.0 | 15.0 | 0.00 | 0.00 | 0.00 | 41 | 1014.7 |
| 20260906203819 | 98 | 124 | 8.0 | 13.0 | 0.00 | 0.00 | 0.00 | 41 | 1014.8 |
| 20260906203618 | 98 | 114 | 14.0 | 17.0 | 0.00 | 0.00 | 0.00 | 42 | 1014.7 |
| 20260906203417 | 99 | 119 | 10.0 | 17.0 | 0.00 | 0.00 | 0.00 | 41 | 1014.7 |
| 20260906203225 | 99 | 122 | 8.0 | 12.0 | 0.00 | 0.00 | 0.00 | 41 | 1014.6 |
| 20260906203024 | 101 | 90 | 5.0 | 10.0 | 0.00 | 0.00 | 0.00 | 39 | 1014.8 |
| 20260906202842 | 100 | 124 | 2.0 | 5.0 | 0.00 | 0.00 | 0.00 | 40 | 1014.6 |
| 20260906202620 | 99 | 101 | 7.0 | 10.0 | 0.00 | 0.00 | 0.00 | 40 | 1014.9 |
| 20260906202439 | 100 | 94 | 9.0 | 12.0 | 0.00 | 0.00 | 0.00 | 39 | 1014.8 |
| 20260906202218 | 99 | 91 | 7.0 | 13.0 | 0.00 | 0.00 | 0.00 | 40 | 1015.0 |
| 20260906202037 | 99 | 96 | 7.0 | 12.0 | 0.00 | 0.00 | 0.00 | 40 | 1014.7 |
| 20260906201825 | 100 | 88 | 6.0 | 9.0 | 0.00 | 0.00 | 0.00 | 40 | 1014.8 |
| 20260906201623 | 99 | 94 | 9.0 | 15.0 | 0.00 | 0.00 | 0.00 | 40 | 1015.0 |
| 20260906201422 | 98 | 70 | 6.0 | 10.0 | 0.00 | 0.00 | 0.00 | 40 | 1015.0 |
| 20260906201221 | 98 | 111 | 10.0 | 16.0 | 0.00 | 0.00 | 0.00 | 41 | 1014.9 |
| 20260906201019 | 99 | 88 | 11.0 | 16.0 | 0.00 | 0.00 | 0.00 | 41 | 1014.9 |
| 20260906200821 | 99 | 83 | 9.0 | 15.0 | 0.00 | 0.00 | 0.00 | 40 | 1014.9 |
| 20260906200616 | 99 | 102 | 5.0 | 9.0 | 0.00 | 0.00 | 0.00 | 41 | 1015.0 |
| 20260906200425 | 99 | 97 | 5.0 | 8.0 | 0.00 | 0.00 | 0.00 | 41 | 1015.0 |
| 20260906200224 | 98 | 96 | 7.0 | 13.0 | 0.00 | 0.00 | 0.00 | 42 | 1014.9 |
| 20260906200022 | 97 | 81 | 10.0 | 14.0 | 0.00 | 0.00 | 0.00 | 43 | 1015.1 |
| 20260906195820 | 98 | 95 | 7.0 | 13.0 | 0.00 | 0.00 | 0.00 | 43 | 1015.2 |
| 20260906195619 | 98 | 106 | 8.0 | 11.0 | 0.00 | 0.00 | 0.00 | 41 | 1015.2 |
| 20260906195438 | 100 | 103 | 7.0 | 13.0 | 0.00 | 0.00 | 0.00 | 40 | 1015.1 |
| 20260906195216 | 99 | 118 | 4.0 | 6.0 | 0.00 | 0.00 | 0.00 | 42 | 1015.2 |
| 20260906195025 | 98 | 115 | 7.0 | 9.0 | 0.00 | 0.00 | 0.00 | 42 | 1015.4 |
| 20260906194823 | 97 | 104 | 7.0 | 10.0 | 0.00 | 0.00 | 0.00 | 43 | 1015.1 |
| 20260906194622 | 95 | 102 | 8.0 | 11.0 | 0.00 | 0.00 | 0.00 | 44 | 1015.4 |
| 20260906194420 | 96 | 111 | 11.0 | 15.0 | 0.00 | 0.00 | 0.00 | 45 | 1015.3 |
| 20260906194219 | 99 | 83 | 8.0 | 13.0 | 0.00 | 0.00 | 0.00 | 42 | 1015.3 |
| 20260906194017 | 99 | 85 | 11.0 | 22.0 | 0.00 | 0.00 | 0.00 | 42 | 1015.4 |
| 20260906193816 | 98 | 80 | 5.0 | 9.0 | 0.00 | 0.00 | 0.00 | 42 | 1015.3 |
| 20260906193625 | 100 | 87 | 7.0 | 12.0 | 0.00 | 0.00 | 0.00 | 40 | 1015.4 |
| 20260906193423 | 99 | 86 | 5.0 | 8.0 | 0.00 | 0.00 | 0.00 | 41 | 1015.6 |
| 20260906193225 | 100 | 89 | 6.0 | 11.0 | 0.00 | 0.00 | 0.00 | 41 | 1015.5 |
| 20260906193020 | 99 | 105 | 9.0 | 18.0 | 0.00 | 0.00 | 0.00 | 42 | 1015.4 |
| 20260906192819 | 99 | 100 | 11.0 | 16.0 | 0.00 | 0.00 | 0.00 | 42 | 1015.4 |
| 20260906192617 | 98 | 98 | 3.0 | 6.0 | 0.00 | 0.00 | 0.00 | 42 | 1015.5 |
| 20260906192416 | 97 | 79 | 12.0 | 15.0 | 0.00 | 0.00 | 0.00 | 43 | 1015.5 |
| 20260906192224 | 96 | 115 | 12.0 | 14.0 | 0.00 | 0.00 | 0.00 | 46 | 1015.4 |
| 20260906192025 | 98 | 107 | 11.0 | 18.0 | 0.00 | 0.00 | 0.00 | 44 | 1015.6 |
| 20260906191821 | 98 | 96 | 7.0 | 13.0 | 0.00 | 0.00 | 0.00 | 44 | 1015.4 |
| 20260906191640 | 97 | 113 | 8.0 | 15.0 | 0.00 | 0.00 | 0.00 | 45 | 1015.6 |
| 20260906191418 | 99 | 118 | 11.0 | 14.0 | 0.00 | 0.00 | 0.00 | 43 | 1015.6 |
| 20260906191217 | 100 | 117 | 9.0 | 15.0 | 0.00 | 0.00 | 0.00 | 43 | 1015.5 |
| 20260906191016 | 99 | 118 | 11.0 | 14.0 | 0.00 | 0.00 | 0.00 | 44 | 1015.5 |
| 20260906190824 | 98 | 127 | 6.0 | 8.0 | 0.00 | 0.00 | 0.00 | 44 | 1015.6 |
| 20260906190643 | 97 | 118 | 9.0 | 13.0 | 0.00 | 0.00 | 0.00 | 44 | 1015.6 |
| 20260906190421 | 96 | 99 | 10.0 | 14.0 | 0.00 | 0.00 | 0.00 | 44 | 1015.5 |
| 20260906190220 | 98 | 86 | 11.0 | 14.0 | 0.00 | 0.00 | 0.00 | 43 | 1015.6 |
| 20260906190018 | 99 | 83 | 11.0 | 14.0 | 0.00 | 0.00 | 0.00 | 42 | 1015.5 |
| 20260906185817 | 99 | 93 | 10.0 | 15.0 | 0.00 | 0.00 | 0.00 | 43 | 1015.5 |
| 20260906185616 | 99 | 78 | 9.0 | 12.0 | 0.00 | 0.00 | 0.00 | 42 | 1015.7 |
| 20260906185424 | 98 | 134 | 7.0 | 10.0 | 0.00 | 0.00 | 0.00 | 45 | 1015.7 |
| 20260906185223 | 98 | 143 | 8.0 | 15.0 | 0.00 | 0.00 | 0.00 | 44 | 1015.7 |
| 20260906185021 | 97 | 90 | 7.0 | 10.0 | 0.00 | 0.00 | 0.00 | 44 | 1015.7 |
| 20260906184840 | 98 | 103 | 9.0 | 12.0 | 0.00 | 0.00 | 0.00 | 44 | 1015.6 |
| 20260906184618 | 99 | 91 | 11.0 | 16.0 | 0.00 | 0.00 | 0.00 | 44 | 1015.7 |
| 20260906184417 | 100 | 79 | 8.0 | 11.0 | 0.00 | 0.00 | 0.00 | 42 | 1015.8 |
| 20260906184225 | 98 | 109 | 10.0 | 14.0 | 0.00 | 0.00 | 0.00 | 44 | 1015.8 |
| 20260906184024 | 97 | 89 | 7.0 | 13.0 | 0.00 | 0.00 | 0.00 | 44 | 1015.7 |
| 20260906183825 | 95 | 82 | 4.0 | 6.0 | 0.00 | 0.00 | 0.00 | 46 | 1016.1 |
| 20260906183621 | 94 | 93 | 5.0 | 8.0 | 0.00 | 0.00 | 0.00 | 49 | 1015.8 |
| 20260906183439 | 95 | 107 | 6.0 | 8.0 | 0.00 | 0.00 | 0.00 | 49 | 1015.8 |
| 20260906183218 | 94 | 78 | 4.0 | 5.0 | 0.00 | 0.00 | 0.00 | 49 | 1015.9 |
| 20260906183016 | 95 | 90 | 4.0 | 9.0 | 0.00 | 0.00 | 0.00 | 49 | 1016.0 |
| 20260906182825 | 94 | 111 | 4.0 | 7.0 | 0.00 | 0.00 | 0.00 | 49 | 1016.0 |
| 20260906182704 | 94 | 154 | 9.0 | 12.0 | 0.00 | 0.00 | 0.00 | 49 | 1015.8 |
| 20260906182502 | 96 | 136 | 13.0 | 16.0 | 0.00 | 0.00 | 0.00 | 48 | 1015.9 |
| 20260906182220 | 98 | 128 | 9.0 | 13.0 | 0.00 | 0.00 | 0.00 | 46 | 1015.9 |
| 20260906182039 | 97 | 107 | 4.0 | 6.0 | 0.00 | 0.00 | 0.00 | 47 | 1016.0 |
| 20260906181818 | 98 | 78 | 10.0 | 15.0 | 0.00 | 0.00 | 0.00 | 46 | 1016.0 |
| 20260906181618 | 97 | 102 | 9.0 | 12.0 | 0.00 | 0.00 | 0.00 | 47 | 1016.1 |
| 20260906181425 | 98 | 137 | 9.0 | 11.0 | 0.00 | 0.00 | 0.00 | 47 | 1016.1 |
| 20260906181224 | 97 | 120 | 4.0 | 8.0 | 0.00 | 0.00 | 0.00 | 47 | 1016.1 |
| 20260906181022 | 98 | 80 | 8.0 | 11.0 | 0.00 | 0.00 | 0.00 | 45 | 1016.2 |
| 20260906180820 | 98 | 153 | 4.0 | 5.0 | 0.00 | 0.00 | 0.00 | 45 | 1015.9 |
| 20260906180619 | 97 | 85 | 10.0 | 17.0 | 0.00 | 0.00 | 0.00 | 46 | 1016.2 |
| 20260906180418 | 97 | 129 | 8.0 | 11.0 | 0.00 | 0.00 | 0.00 | 47 | 1016.1 |
| 20260906180216 | 97 | 166 | 7.0 | 9.0 | 0.00 | 0.00 | 0.00 | 46 | 1016.3 |
| 20260906180025 | 96 | 121 | 6.0 | 10.0 | 0.00 | 0.00 | 0.00 | 47 | 1016.3 |
| 20260906175823 | 95 | 125 | 9.0 | 15.0 | 0.00 | 0.00 | 0.00 | 48 | 1016.4 |
| 20260906175622 | 98 | 114 | 14.0 | 18.0 | 0.00 | 0.00 | 0.00 | 47 | 1016.1 |
| 20260906175421 | 99 | 115 | 8.0 | 13.0 | 0.00 | 0.00 | 0.00 | 45 | 1016.6 |
| 20260906175219 | 99 | 88 | 2.0 | 4.0 | 0.00 | 0.00 | 0.00 | 45 | 1016.6 |
| 20260906175019 | 97 | 55 | 4.0 | 7.0 | 0.00 | 0.00 | 0.00 | 46 | 1016.8 |
| 20260906174816 | 97 | 92 | 7.0 | 13.0 | 0.00 | 0.00 | 0.00 | 47 | 1016.6 |
| 20260906174625 | 97 | 77 | 9.0 | 13.0 | 0.00 | 0.00 | 0.00 | 46 | 1016.6 |
| 20260906174423 | 95 | 116 | 7.0 | 13.0 | 0.00 | 0.00 | 0.00 | 48 | 1016.8 |
| 20260906174222 | 96 | 104 | 7.0 | 9.0 | 0.00 | 0.00 | 0.00 | 47 | 1016.7 |
| 20260906174020 | 99 | 91 | 7.0 | 13.0 | 0.00 | 0.00 | 0.00 | 45 | 1016.8 |
| 20260906173840 | 97 | 128 | 6.0 | 9.0 | 0.00 | 0.00 | 0.00 | 46 | 1016.6 |
| 20260906173637 | 97 | 152 | 5.0 | 7.0 | 0.00 | 0.00 | 0.00 | 46 | 1016.8 |
| 20260906173416 | 96 | 129 | 7.0 | 13.0 | 0.00 | 0.00 | 0.00 | 47 | 1016.6 |
| 20260906173225 | 97 | 119 | 12.0 | 17.0 | 0.00 | 0.00 | 0.00 | 46 | 1016.9 |
| 20260906173023 | 98 | 98 | 10.0 | 13.0 | 0.00 | 0.00 | 0.00 | 46 | 1016.7 |
| 20260906172822 | 96 | 73 | 7.0 | 12.0 | 0.00 | 0.00 | 0.00 | 48 | 1016.8 |
| 20260906172621 | 96 | 67 | 8.0 | 12.0 | 0.00 | 0.00 | 0.00 | 47 | 1016.7 |
| 20260906172439 | 95 | 79 | 9.0 | 13.0 | 0.00 | 0.00 | 0.00 | 48 | 1016.8 |
| 20260906172217 | 96 | 75 | 10.0 | 14.0 | 0.00 | 0.00 | 0.00 | 47 | 1016.8 |
| 20260906172016 | 96 | 95 | 9.0 | 12.0 | 0.00 | 0.00 | 0.00 | 48 | 1016.9 |
| 20260906171825 | 96 | 110 | 9.0 | 12.0 | 0.00 | 0.00 | 0.00 | 47 | 1017.0 |
| 20260906171623 | 96 | 75 | 6.0 | 9.0 | 0.00 | 0.00 | 0.00 | 47 | 1016.9 |
| 20260906171422 | 95 | 115 | 8.0 | 12.0 | 0.00 | 0.00 | 0.00 | 47 | 1016.9 |
| 20260906171221 | 97 | 112 | 11.0 | 15.0 | 0.00 | 0.00 | 0.00 | 47 | 1017.0 |
| 20260906171019 | 96 | 121 | 7.0 | 9.0 | 0.00 | 0.00 | 0.00 | 47 | 1016.9 |
| 20260906170817 | 97 | 109 | 8.0 | 10.0 | 0.00 | 0.00 | 0.00 | 47 | 1017.1 |
| 20260906170616 | 95 | 138 | 8.0 | 12.0 | 0.00 | 0.00 | 0.00 | 48 | 1017.3 |
| 20260906170425 | 96 | 128 | 10.0 | 12.0 | 0.00 | 0.00 | 0.00 | 47 | 1017.2 |
| 20260906170223 | 96 | 131 | 8.0 | 11.0 | 0.00 | 0.00 | 0.00 | 47 | 1017.1 |
| 20260906165821 | 96 | 141 | 10.0 | 13.0 | 0.00 | 0.00 | 0.00 | 47 | 1017.3 |
| 20260906165619 | 95 | 87 | 5.0 | 9.0 | 0.00 | 0.00 | 0.00 | 47 | 1017.4 |
| 20260906165418 | 95 | 137 | 9.0 | 16.0 | 0.00 | 0.00 | 0.00 | 48 | 1017.2 |
| 20260906165217 | 95 | 115 | 11.0 | 14.0 | 0.00 | 0.00 | 0.00 | 48 | 1017.3 |
| 20260906165026 | 96 | 116 | 10.0 | 14.0 | 0.00 | 0.00 | 0.00 | 46 | 1017.3 |
| 20260906164823 | 97 | 127 | 6.0 | 7.0 | 0.00 | 0.00 | 0.00 | 46 | 1017.2 |
| 20260906164622 | 97 | 89 | 8.0 | 12.0 | 0.00 | 0.00 | 0.00 | 46 | 1017.2 |
| 20260906164441 | 97 | 105 | 9.0 | 13.0 | 0.00 | 0.00 | 0.00 | 45 | 1017.1 |
| 20260906164219 | 98 | 110 | 6.0 | 8.0 | 0.00 | 0.00 | 0.00 | 45 | 1017.1 |
| 20260906164038 | 97 | 102 | 6.0 | 9.0 | 0.00 | 0.00 | 0.00 | 45 | 1017.1 |
| 20260906163816 | 97 | 89 | 9.0 | 16.0 | 0.00 | 0.00 | 0.00 | 46 | 1016.9 |
| 20260906163624 | 97 | 69 | 7.0 | 10.0 | 0.00 | 0.00 | 0.00 | 46 | 1017.2 |
| 20260906163423 | 96 | 71 | 3.0 | 6.0 | 0.00 | 0.00 | 0.00 | 48 | 1017.3 |
| 20260906163222 | 96 | 85 | 6.0 | 10.0 | 0.00 | 0.00 | 0.00 | 48 | 1017.3 |
| 20260906163101 | 95 | 141 | 3.0 | 5.0 | 0.00 | 0.00 | 0.00 | 49 | 1017.2 |
| 20260906162819 | 94 | 129 | 6.0 | 9.0 | 0.00 | 0.00 | 0.00 | 50 | 1017.3 |
| 20260906162618 | 95 | 110 | 10.0 | 15.0 | 0.00 | 0.00 | 0.00 | 49 | 1017.0 |
| 20260906162416 | 94 | 116 | 8.0 | 11.0 | 0.00 | 0.00 | 0.00 | 51 | 1017.1 |
| 20260906162225 | 95 | 113 | 9.0 | 13.0 | 0.00 | 0.00 | 0.00 | 49 | 1017.1 |
| 20260906162024 | 95 | 84 | 5.0 | 8.0 | 0.00 | 0.00 | 0.00 | 50 | 1017.1 |
| 20260906161822 | 94 | 91 | 8.0 | 11.0 | 0.00 | 0.00 | 0.00 | 50 | 1017.1 |
| 20260906161640 | 96 | 88 | 10.0 | 14.0 | 0.00 | 0.00 | 0.00 | 48 | 1017.0 |
| 20260906161419 | 95 | 63 | 6.0 | 10.0 | 0.00 | 0.00 | 0.00 | 50 | 1017.2 |
| 20260906161217 | 95 | 129 | 5.0 | 9.0 | 0.00 | 0.00 | 0.00 | 50 | 1017.1 |
| 20260906161016 | 96 | 55 | 5.0 | 8.0 | 0.00 | 0.00 | 0.00 | 50 | 1017.2 |
| 20260906160825 | 96 | 90 | 5.0 | 7.0 | 0.00 | 0.00 | 0.00 | 49 | 1017.2 |
| 20260906160624 | 94 | 92 | 6.0 | 9.0 | 0.00 | 0.00 | 0.00 | 51 | 1017.2 |
| 20260906160422 | 96 | 76 | 8.0 | 14.0 | 0.00 | 0.00 | 0.00 | 49 | 1017.2 |
| 20260906160240 | 95 | 69 | 4.0 | 6.0 | 0.00 | 0.00 | 0.00 | 49 | 1017.3 |
| 20260906160019 | 93 | 67 | 7.0 | 11.0 | 0.00 | 0.00 | 0.00 | 52 | 1017.2 |
| 20260906155817 | 94 | 70 | 8.0 | 14.0 | 0.00 | 0.00 | 0.00 | 50 | 1016.8 |
| 20260906155616 | 94 | 88 | 4.0 | 6.0 | 0.00 | 0.00 | 0.00 | 51 | 1017.2 |
| 20260906155425 | 95 | 86 | 7.0 | 10.0 | 0.00 | 0.00 | 0.00 | 51 | 1017.2 |
| 20260906155223 | 95 | 59 | 6.0 | 9.0 | 0.00 | 0.00 | 0.00 | 49 | 1016.9 |
| 20260906155101 | 95 | 70 | 5.0 | 7.0 | 0.00 | 0.00 | 0.00 | 49 | 1016.9 |
| 20260906154820 | 94 | 103 | 5.0 | 7.0 | 0.00 | 0.00 | 0.00 | 50 | 1017.0 |
| 20260906154638 | 94 | 98 | 6.0 | 8.0 | 0.00 | 0.00 | 0.00 | 50 | 1017.3 |
| 20260906154417 | 95 | 89 | 4.0 | 6.0 | 0.00 | 0.00 | 0.00 | 50 | 1017.1 |
| 20260906154216 | 94 | 74 | 6.0 | 9.0 | 0.00 | 0.00 | 0.00 | 51 | 1017.1 |
| 20260906154045 | 93 | 92 | 3.0 | 5.0 | 0.00 | 0.00 | 0.00 | 53 | 1017.3 |
| 20260906153843 | 93 | 44 | 6.0 | 8.0 | 0.00 | 0.00 | 0.00 | 53 | 1017.0 |
| 20260906153621 | 94 | 44 | 5.0 | 9.0 | 0.00 | 0.00 | 0.00 | 53 | 1017.0 |
| 20260906153420 | 93 | 63 | 4.0 | 5.0 | 0.00 | 0.00 | 0.00 | 54 | 1017.2 |
| 20260906153219 | 92 | 83 | 9.0 | 12.0 | 0.00 | 0.00 | 0.00 | 55 | 1017.0 |
| 20260906153019 | 92 | 78 | 8.0 | 11.0 | 0.00 | 0.00 | 0.00 | 55 | 1017.2 |
| 20260906152836 | 92 | 35 | 6.0 | 8.0 | 0.00 | 0.00 | 0.00 | 55 | 1017.1 |
| 20260906152624 | 94 | 69 | 7.0 | 10.0 | 0.00 | 0.00 | 0.00 | 54 | 1017.0 |
| 20260906152423 | 93 | 130 | 3.0 | 6.0 | 0.00 | 0.00 | 0.00 | 55 | 1017.0 |
| 20260906152222 | 93 | 110 | 2.0 | 4.0 | 0.00 | 0.00 | 0.00 | 55 | 1016.9 |
| 20260906152042 | 93 | 55 | 5.0 | 6.0 | 0.00 | 0.00 | 0.00 | 54 | 1016.9 |
| 20260906151818 | 94 | 60 | 3.0 | 4.0 | 0.00 | 0.00 | 0.00 | 54 | 1016.9 |
| 20260906151617 | 94 | 84 | 2.0 | 3.0 | 0.00 | 0.00 | 0.00 | 55 | 1016.8 |
| 20260906151415 | 93 | 101 | 3.0 | 5.0 | 0.00 | 0.00 | 0.00 | 57 | 1016.7 |
| 20260906151224 | 91 | 63 | 2.0 | 4.0 | 0.00 | 0.00 | 0.00 | 59 | 1016.8 |
| 20260906151023 | 91 | 43 | 4.0 | 6.0 | 0.00 | 0.00 | 0.00 | 59 | 1016.9 |
| 20260906150822 | 91 | 70 | 4.0 | 6.0 | 0.00 | 0.00 | 0.00 | 60 | 1016.9 |
| 20260906150643 | 91 | 54 | 4.0 | 6.0 | 0.00 | 0.00 | 0.00 | 60 | 1016.8 |
| 20260906150418 | 91 | 59 | 4.0 | 5.0 | 0.00 | 0.00 | 0.00 | 60 | 1016.9 |
| 20260906150237 | 91 | 72 | 2.0 | 4.0 | 0.00 | 0.00 | 0.00 | 60 | 1016.8 |
| 20260906150016 | 91 | 66 | 4.0 | 5.0 | 0.00 | 0.00 | 0.00 | 61 | 1017.0 |
| 20260906145824 | 91 | 56 | 4.0 | 6.0 | 0.00 | 0.00 | 0.00 | 61 | 1017.0 |
| 20260906145623 | 91 | 122 | 2.0 | 3.0 | 0.00 | 0.00 | 0.00 | 61 | 1017.0 |
| 20260906145422 | 90 | 89 | 3.0 | 4.0 | 0.00 | 0.00 | 0.00 | 61 | 1016.9 |
| 20260906145220 | 90 | 87 | 3.0 | 5.0 | 0.00 | 0.00 | 0.00 | 62 | 1017.0 |
| 20260906145018 | 90 | 80 | 3.0 | 5.0 | 0.00 | 0.00 | 0.00 | 62 | 1016.7 |
| 20260906144817 | 90 | 64 | 4.0 | 6.0 | 0.00 | 0.00 | 0.00 | 62 | 1017.0 |
| 20260906144616 | 89 | 50 | 4.0 | 5.0 | 0.00 | 0.00 | 0.00 | 63 | 1016.8 |
| 20260906144424 | 90 | 65 | 3.0 | 4.0 | 0.00 | 0.00 | 0.00 | 62 | 1016.8 |
| 20260906144223 | 89 | 82 | 4.0 | 5.0 | 0.00 | 0.00 | 0.00 | 63 | 1016.8 |
| 20260906144022 | 88 | 83 | 2.0 | 4.0 | 0.00 | 0.00 | 0.00 | 65 | 1016.9 |
| 20260906143820 | 88 | 83 | 5.0 | 6.0 | 0.00 | 0.00 | 0.00 | 65 | 1016.9 |
| 20260906143619 | 89 | 50 | 4.0 | 5.0 | 0.00 | 0.00 | 0.00 | 64 | 1016.9 |
| 20260906143437 | 88 | 96 | 2.0 | 4.0 | 0.00 | 0.00 | 0.00 | 64 | 1016.9 |
| 20260906143216 | 88 | 100 | 4.0 | 5.0 | 0.00 | 0.00 | 0.00 | 65 | 1016.9 |
| 20260906143025 | 88 | 83 | 5.0 | 6.0 | 0.00 | 0.00 | 0.00 | 65 | 1016.9 |
| 20260906142823 | 88 | 89 | 3.0 | 6.0 | 0.00 | 0.00 | 0.00 | 66 | 1017.0 |
| 20260906142702 | 88 | 77 | 5.0 | 7.0 | 0.00 | 0.00 | 0.00 | 66 | 1016.9 |
| 20260906142420 | 88 | 120 | 3.0 | 4.0 | 0.00 | 0.00 | 0.00 | 66 | 1016.9 |
| 20260906142218 | 87 | 78 | 4.0 | 6.0 | 0.00 | 0.00 | 0.00 | 68 | 1017.1 |
| 20260906142017 | 86 | 110 | 6.0 | 6.0 | 0.00 | 0.00 | 0.00 | 70 | 1017.0 |
| 20260906141816 | 86 | 97 | 4.0 | 6.0 | 0.00 | 0.00 | 0.00 | 70 | 1017.0 |
| 20260906141624 | 87 | 111 | 4.0 | 5.0 | 0.00 | 0.00 | 0.00 | 69 | 1016.9 |
| 20260906141423 | 86 | 120 | 4.0 | 6.0 | 0.00 | 0.00 | 0.00 | 70 | 1017.1 |
| 20260906141242 | 85 | 117 | 5.0 | 7.0 | 0.00 | 0.00 | 0.00 | 71 | 1017.0 |
| 20260906141020 | 85 | 138 | 6.0 | 8.0 | 0.00 | 0.00 | 0.00 | 71 | 1016.9 |
| 20260906140819 | 85 | 133 | 4.0 | 6.0 | 0.00 | 0.00 | 0.00 | 71 | 1017.0 |
| 20260906140617 | 86 | 102 | 3.0 | 6.0 | 0.00 | 0.00 | 0.00 | 70 | 1017.0 |
| 20260906140416 | 85 | 118 | 5.0 | 6.0 | 0.00 | 0.00 | 0.00 | 72 | 1017.0 |
| 20260906140224 | 84 | 132 | 4.0 | 6.0 | 0.00 | 0.00 | 0.00 | 73 | 1016.8 |
| 20260906140023 | 84 | 145 | 4.0 | 6.0 | 0.00 | 0.00 | 0.00 | 73 | 1016.8 |
| 20260906135841 | 84 | 148 | 6.0 | 7.0 | 0.00 | 0.00 | 0.00 | 73 | 1017.0 |
| 20260906135640 | 84 | 159 | 6.0 | 8.0 | 0.00 | 0.00 | 0.00 | 73 | 1016.9 |
| 20260906135418 | 85 | 134 | 4.0 | 5.0 | 0.00 | 0.00 | 0.00 | 72 | 1016.8 |
| 20260906135217 | 85 | 124 | 4.0 | 5.0 | 0.00 | 0.00 | 0.00 | 73 | 1017.0 |
| 20260906135015 | 84 | 100 | 4.0 | 6.0 | 0.00 | 0.00 | 0.00 | 73 | 1016.9 |
| 20260906134824 | 84 | 108 | 4.0 | 5.0 | 0.00 | 0.00 | 0.00 | 74 | 1016.9 |
| 20260906134623 | 83 | 106 | 5.0 | 7.0 | 0.00 | 0.00 | 0.00 | 75 | 1016.8 |
| 20260906134441 | 83 | 127 | 4.0 | 6.0 | 0.00 | 0.00 | 0.00 | 75 | 1016.7 |
| 20260906134240 | 83 | 104 | 5.0 | 6.0 | 0.00 | 0.00 | 0.00 | 75 | 1016.8 |
| 20260906134018 | 84 | 122 | 4.0 | 5.0 | 0.00 | 0.00 | 0.00 | 74 | 1016.6 |
| 20260906133817 | 83 | 120 | 4.0 | 5.0 | 0.00 | 0.00 | 0.00 | 75 | 1016.8 |
| 20260906133615 | 83 | 105 | 4.0 | 5.0 | 0.00 | 0.00 | 0.00 | 75 | 1016.7 |
| 20260906133424 | 83 | 98 | 4.0 | 5.0 | 0.00 | 0.00 | 0.00 | 75 | 1016.8 |
| 20260906133223 | 83 | 107 | 4.0 | 5.0 | 0.00 | 0.00 | 0.00 | 75 | 1016.6 |
| 20260906133021 | 83 | 98 | 4.0 | 5.0 | 0.00 | 0.00 | 0.00 | 76 | 1016.8 |
| 20260906132820 | 82 | 107 | 4.0 | 5.0 | 0.00 | 0.00 | 0.00 | 76 | 1016.6 |
| 20260906132618 | 82 | 103 | 3.0 | 4.0 | 0.00 | 0.00 | 0.00 | 77 | 1016.7 |
| 20260906132417 | 82 | 100 | 4.0 | 5.0 | 0.00 | 0.00 | 0.00 | 77 | 1016.9 |
| 20260906132215 | 81 | 109 | 4.0 | 5.0 | 0.00 | 0.00 | 0.00 | 79 | 1016.7 |
| 20260906132024 | 81 | 107 | 5.0 | 6.0 | 0.00 | 0.00 | 0.00 | 79 | 1016.7 |
| 20260906131823 | 81 | 107 | 4.0 | 5.0 | 0.00 | 0.00 | 0.00 | 79 | 1016.8 |
| 20260906131622 | 80 | 110 | 4.0 | 5.0 | 0.00 | 0.00 | 0.00 | 79 | 1016.9 |
| 20260906131440 | 80 | 96 | 4.0 | 5.0 | 0.00 | 0.00 | 0.00 | 80 | 1016.9 |
| 20260906131218 | 80 | 107 | 5.0 | 6.0 | 0.00 | 0.00 | 0.00 | 81 | 1016.6 |
| 20260906131017 | 80 | 110 | 6.0 | 7.0 | 0.00 | 0.00 | 0.00 | 80 | 1017.0 |
| 20260906130816 | 80 | 101 | 4.0 | 5.0 | 0.00 | 0.00 | 0.00 | 80 | 1016.8 |
| 20260906130624 | 79 | 107 | 4.0 | 5.0 | 0.00 | 0.00 | 0.00 | 81 | 1017.0 |
| 20260906130423 | 79 | 102 | 4.0 | 6.0 | 0.00 | 0.00 | 0.00 | 81 | 1016.7 |
| 20260906130221 | 79 | 109 | 4.0 | 5.0 | 0.00 | 0.00 | 0.00 | 81 | 1016.8 |
| 20260906130100 | 79 | 104 | 3.0 | 5.0 | 0.00 | 0.00 | 0.00 | 81 | 1016.7 |
| 20260906125818 | 79 | 111 | 3.0 | 4.0 | 0.00 | 0.00 | 0.00 | 82 | 1016.8 |
| 20260906125617 | 78 | 110 | 3.0 | 4.0 | 0.00 | 0.00 | 0.00 | 82 | 1016.6 |
| 20260906125416 | 78 | 111 | 4.0 | 4.0 | 0.00 | 0.00 | 0.00 | 82 | 1016.7 |
| 20260906125224 | 78 | 104 | 3.0 | 4.0 | 0.00 | 0.00 | 0.00 | 82 | 1016.8 |
| 20260906125043 | 77 | 97 | 2.0 | 2.0 | 0.00 | 0.00 | 0.00 | 83 | 1016.7 |
| 20260906124821 | 77 | 93 | 2.0 | 3.0 | 0.00 | 0.00 | 0.00 | 84 | 1016.7 |
| 20260906124640 | 76 | 90 | 3.0 | 4.0 | 0.00 | 0.00 | 0.00 | 84 | 1016.6 |
| 20260906124418 | 76 | 77 | 3.0 | 4.0 | 0.00 | 0.00 | 0.00 | 85 | 1016.6 |
| 20260906124217 | 76 | 80 | 3.0 | 4.0 | 0.00 | 0.00 | 0.00 | 85 | 1016.6 |
| 20260906124015 | 75 | 76 | 3.0 | 4.0 | 0.00 | 0.00 | 0.00 | 85 | 1016.5 |
| 20260906123844 | 75 | 80 | 4.0 | 4.0 | 0.00 | 0.00 | 0.00 | 85 | 1016.5 |
| 20260906123642 | 76 | 78 | 3.0 | 4.0 | 0.00 | 0.00 | 0.00 | 85 | 1016.5 |
| 20260906123421 | 76 | 75 | 3.0 | 4.0 | 0.00 | 0.00 | 0.00 | 85 | 1016.4 |
| 20260906123220 | 76 | 69 | 3.0 | 3.0 | 0.00 | 0.00 | 0.00 | 85 | 1016.4 |
| 20260906123018 | 76 | 67 | 2.0 | 3.0 | 0.00 | 0.00 | 0.00 | 85 | 1016.5 |
| 20260906122817 | 75 | 54 | 3.0 | 3.0 | 0.00 | 0.00 | 0.00 | 86 | 1016.5 |
| 20260906122635 | 75 | 53 | 3.0 | 3.0 | 0.00 | 0.00 | 0.00 | 86 | 1016.4 |
| 20260906122424 | 75 | 55 | 2.0 | 3.0 | 0.00 | 0.00 | 0.00 | 86 | 1016.3 |
| 20260906122243 | 75 | 62 | 3.0 | 3.0 | 0.00 | 0.00 | 0.00 | 86 | 1016.3 |
| 20260906122021 | 75 | 66 | 2.0 | 3.0 | 0.00 | 0.00 | 0.00 | 86 | 1016.3 |
| 20260906121820 | 75 | 64 | 2.0 | 3.0 | 0.00 | 0.00 | 0.00 | 87 | 1016.2 |
| 20260906121618 | 75 | 54 | 2.0 | 3.0 | 0.00 | 0.00 | 0.00 | 87 | 1016.1 |
| 20260906121417 | 75 | 53 | 2.0 | 3.0 | 0.00 | 0.00 | 0.00 | 87 | 1016.1 |
| 20260906121225 | 75 | 58 | 2.0 | 3.0 | 0.00 | 0.00 | 0.00 | 87 | 1016.3 |
| 20260906121024 | 75 | 58 | 2.0 | 3.0 | 0.00 | 0.00 | 0.00 | 86 | 1016.2 |
| 20260906120823 | 75 | 60 | 2.0 | 2.0 | 0.00 | 0.00 | 0.00 | 86 | 1016.1 |
| 20260906120621 | 75 | 63 | 2.0 | 2.0 | 0.00 | 0.00 | 0.00 | 86 | 1016.2 |
| 20260906120419 | 75 | 53 | 2.0 | 3.0 | 0.00 | 0.00 | 0.00 | 86 | 1016.3 |
| 20260906120218 | 75 | 41 | 2.0 | 3.0 | 0.00 | 0.00 | 0.00 | 86 | 1016.1 |
| 20260906120117 | 75 | 35 | 2.0 | 3.0 | 0.00 | 0.00 | 0.00 | 86 | 1016.2 |
| 20260906115846 | 75 | 38 | 2.0 | 3.0 | 0.00 | 0.00 | 0.00 | 86 | 1016.0 |
| 20260906115624 | 75 | 58 | 2.0 | 2.0 | 0.00 | 0.00 | 0.00 | 86 | 1016.1 |
| 20260906115423 | 75 | 84 | 2.0 | 2.0 | 0.00 | 0.00 | 0.00 | 86 | 1016.0 |
| 20260906115221 | 75 | 76 | 2.0 | 2.0 | 0.00 | 0.00 | 0.00 | 86 | 1016.1 |
| 20260906115020 | 75 | 78 | 2.0 | 2.0 | 0.00 | 0.00 | 0.00 | 86 | 1016.0 |
| 20260906114818 | 75 | 80 | 2.0 | 2.0 | 0.00 | 0.00 | 0.00 | 86 | 1016.1 |
| 20260906114617 | 75 | 82 | 2.0 | 3.0 | 0.00 | 0.00 | 0.00 | 86 | 1016.2 |
| 20260906114425 | 75 | 92 | 3.0 | 3.0 | 0.00 | 0.00 | 0.00 | 86 | 1016.0 |
| 20260906114224 | 75 | 90 | 3.0 | 3.0 | 0.00 | 0.00 | 0.00 | 86 | 1015.9 |
| 20260906114023 | 75 | 93 | 3.0 | 4.0 | 0.00 | 0.00 | 0.00 | 86 | 1016.2 |
| 20260906113841 | 75 | 96 | 2.0 | 3.0 | 0.00 | 0.00 | 0.00 | 86 | 1015.8 |
| 20260906113619 | 75 | 96 | 3.0 | 4.0 | 0.00 | 0.00 | 0.00 | 86 | 1016.1 |
| 20260906113418 | 75 | 97 | 3.0 | 4.0 | 0.00 | 0.00 | 0.00 | 86 | 1016.1 |
| 20260906113216 | 75 | 94 | 3.0 | 4.0 | 0.00 | 0.00 | 0.00 | 86 | 1016.1 |
| 20260906113025 | 75 | 86 | 4.0 | 4.0 | 0.00 | 0.00 | 0.00 | 86 | 1016.1 |
| 20260906112824 | 75 | 84 | 4.0 | 4.0 | 0.00 | 0.00 | 0.00 | 86 | 1016.1 |
| 20260906112622 | 75 | 79 | 3.0 | 4.0 | 0.00 | 0.00 | 0.00 | 86 | 1015.9 |
| 20260906112423 | 75 | 77 | 3.0 | 3.0 | 0.00 | 0.00 | 0.00 | 86 | 1016.0 |
| 20260906112220 | 75 | 73 | 3.0 | 3.0 | 0.00 | 0.00 | 0.00 | 86 | 1015.9 |
| 20260906112018 | 75 | 71 | 2.0 | 3.0 | 0.00 | 0.00 | 0.00 | 85 | 1015.9 |
| 20260906111937 | 75 | 67 | 2.0 | 3.0 | 0.00 | 0.00 | 0.00 | 85 | 1016.0 |
| 20260906111625 | 75 | 64 | 2.0 | 3.0 | 0.00 | 0.00 | 0.00 | 85 | 1016.0 |
| 20260906111504 | 76 | 37 | 3.0 | 4.0 | 0.00 | 0.00 | 0.00 | 85 | 1015.9 |
| 20260906111222 | 76 | 37 | 3.0 | 4.0 | 0.00 | 0.00 | 0.00 | 85 | 1015.9 |
| 20260906111023 | 76 | 37 | 2.0 | 3.0 | 0.00 | 0.00 | 0.00 | 84 | 1015.8 |
| 20260906110819 | 76 | 35 | 2.0 | 3.0 | 0.00 | 0.00 | 0.00 | 85 | 1015.7 |
| 20260906110618 | 76 | 43 | 2.0 | 3.0 | 0.00 | 0.00 | 0.00 | 85 | 1015.8 |
| 20260906110417 | 76 | 37 | 2.0 | 3.0 | 0.00 | 0.00 | 0.00 | 84 | 1016.0 |
| 20260906110225 | 76 | 42 | 3.0 | 3.0 | 0.00 | 0.00 | 0.00 | 84 | 1015.8 |
| 20260906110024 | 76 | 57 | 2.0 | 3.0 | 0.00 | 0.00 | 0.00 | 84 | 1015.6 |
| 20260906105822 | 76 | 66 | 2.0 | 2.0 | 0.00 | 0.00 | 0.00 | 84 | 1015.8 |
| 20260906105621 | 77 | 75 | 2.0 | 3.0 | 0.00 | 0.00 | 0.00 | 83 | 1015.6 |
| 20260906105440 | 77 | 72 | 2.0 | 3.0 | 0.00 | 0.00 | 0.00 | 82 | 1015.5 |
| 20260906105219 | 77 | 87 | 2.0 | 2.0 | 0.00 | 0.00 | 0.00 | 82 | 1015.5 |
| 20260906105016 | 77 | 107 | 3.0 | 4.0 | 0.00 | 0.00 | 0.00 | 83 | 1015.5 |
| 20260906104825 | 77 | 107 | 2.0 | 3.0 | 0.00 | 0.00 | 0.00 | 82 | 1015.4 |
| 20260906104643 | 78 | 122 | 2.0 | 4.0 | 0.00 | 0.00 | 0.00 | 82 | 1015.5 |
| 20260906104422 | 78 | 116 | 3.0 | 3.0 | 0.00 | 0.00 | 0.00 | 82 | 1015.5 |
| 20260906104221 | 78 | 116 | 3.0 | 4.0 | 0.00 | 0.00 | 0.00 | 82 | 1015.4 |
| 20260906104019 | 77 | 104 | 4.0 | 4.0 | 0.00 | 0.00 | 0.00 | 82 | 1015.6 |
| 20260906103818 | 77 | 100 | 3.0 | 4.0 | 0.00 | 0.00 | 0.00 | 82 | 1015.4 |
| 20260906103616 | 77 | 99 | 3.0 | 4.0 | 0.00 | 0.00 | 0.00 | 83 | 1015.6 |
| 20260906103425 | 76 | 88 | 3.0 | 4.0 | 0.00 | 0.00 | 0.00 | 83 | 1015.6 |
| 20260906103224 | 76 | 80 | 3.0 | 4.0 | 0.00 | 0.00 | 0.00 | 83 | 1015.6 |
| 20260906103023 | 76 | 81 | 3.0 | 3.0 | 0.00 | 0.00 | 0.00 | 84 | 1015.5 |
| 20260906102821 | 75 | 78 | 2.0 | 3.0 | 0.00 | 0.00 | 0.00 | 85 | 1015.6 |
| 20260906102619 | 75 | 76 | 3.0 | 3.0 | 0.00 | 0.00 | 0.00 | 85 | 1015.4 |
| 20260906102418 | 75 | 77 | 3.0 | 3.0 | 0.00 | 0.00 | 0.00 | 85 | 1015.5 |
| 20260906102216 | 76 | 78 | 3.0 | 3.0 | 0.00 | 0.00 | 0.00 | 84 | 1015.5 |
| 20260906102025 | 76 | 75 | 2.0 | 3.0 | 0.00 | 0.00 | 0.00 | 84 | 1015.4 |
| 20260906101825 | 76 | 70 | 2.0 | 3.0 | 0.00 | 0.00 | 0.00 | 83 | 1015.5 |
| 20260906101622 | 76 | 62 | 2.0 | 2.0 | 0.00 | 0.00 | 0.00 | 83 | 1015.5 |
| 20260906101423 | 76 | 64 | 2.0 | 3.0 | 0.00 | 0.00 | 0.00 | 83 | 1015.5 |
| 20260906101219 | 76 | 68 | 2.0 | 2.0 | 0.00 | 0.00 | 0.00 | 83 | 1015.5 |
| 20260906101017 | 76 | 68 | 2.0 | 2.0 | 0.00 | 0.00 | 0.00 | 83 | 1015.5 |
| 20260906100856 | 76 | 62 | 2.0 | 2.0 | 0.00 | 0.00 | 0.00 | 84 | 1015.3 |
| 20260906100625 | 76 | 65 | 2.0 | 2.0 | 0.00 | 0.00 | 0.00 | 84 | 1015.5 |
| 20260906100424 | 76 | 70 | 2.0 | 3.0 | 0.00 | 0.00 | 0.00 | 84 | 1015.4 |
| 20260906100242 | 76 | 67 | 2.0 | 3.0 | 0.00 | 0.00 | 0.00 | 83 | 1015.5 |
| 20260906100020 | 76 | 67 | 2.0 | 3.0 | 0.00 | 0.00 | 0.00 | 83 | 1015.4 |
| 20260906095819 | 76 | 68 | 2.0 | 3.0 | 0.00 | 0.00 | 0.00 | 83 | 1015.4 |
| 20260906095617 | 77 | 67 | 2.0 | 3.0 | 0.00 | 0.00 | 0.00 | 82 | 1015.4 |
| 20260906095416 | 77 | 55 | 2.0 | 3.0 | 0.00 | 0.00 | 0.00 | 82 | 1015.5 |
| 20260906095226 | 77 | 62 | 2.0 | 2.0 | 0.00 | 0.00 | 0.00 | 82 | 1015.2 |
| 20260906095023 | 77 | 58 | 2.0 | 2.0 | 0.00 | 0.00 | 0.00 | 82 | 1015.2 |
| 20260906094822 | 77 | 56 | 2.0 | 3.0 | 0.00 | 0.00 | 0.00 | 82 | 1015.2 |
| 20260906094621 | 76 | 71 | 2.0 | 3.0 | 0.00 | 0.00 | 0.00 | 83 | 1015.2 |
| 20260906094439 | 76 | 71 | 3.0 | 4.0 | 0.00 | 0.00 | 0.00 | 83 | 1015.4 |
| 20260906094217 | 76 | 72 | 2.0 | 3.0 | 0.00 | 0.00 | 0.00 | 83 | 1015.2 |
| 20260906094016 | 76 | 74 | 2.0 | 3.0 | 0.00 | 0.00 | 0.00 | 83 | 1015.4 |
| 20260906093824 | 76 | 71 | 2.0 | 3.0 | 0.00 | 0.00 | 0.00 | 83 | 1015.4 |
| 20260906093643 | 77 | 78 | 3.0 | 3.0 | 0.00 | 0.00 | 0.00 | 82 | 1015.2 |
| 20260906093422 | 77 | 68 | 2.0 | 3.0 | 0.00 | 0.00 | 0.00 | 81 | 1015.2 |
| 20260906093220 | 78 | 73 | 2.0 | 3.0 | 0.00 | 0.00 | 0.00 | 80 | 1015.2 |
| 20260906093019 | 78 | 73 | 1.0 | 2.0 | 0.00 | 0.00 | 0.00 | 81 | 1015.3 |
| 20260906092818 | 78 | 60 | 1.0 | 3.0 | 0.00 | 0.00 | 0.00 | 80 | 1015.2 |
| 20260906092616 | 78 | 149 | 1.0 | 2.0 | 0.00 | 0.00 | 0.00 | 82 | 1015.3 |
| 20260906092425 | 78 | 51 | 2.0 | 2.0 | 0.00 | 0.00 | 0.00 | 81 | 1015.2 |
| 20260906092223 | 78 | 34 | 2.0 | 3.0 | 0.00 | 0.00 | 0.00 | 81 | 1015.4 |
| 20260906092022 | 78 | 27 | 3.0 | 3.0 | 0.00 | 0.00 | 0.00 | 81 | 1015.4 |
| 20260906091820 | 77 | 21 | 2.0 | 4.0 | 0.00 | 0.00 | 0.00 | 81 | 1015.3 |
| 20260906091619 | 77 | 23 | 3.0 | 4.0 | 0.00 | 0.00 | 0.00 | 81 | 1015.4 |
| 20260906091417 | 77 | 34 | 2.0 | 3.0 | 0.00 | 0.00 | 0.00 | 82 | 1015.4 |
| 20260906091216 | 77 | 28 | 3.0 | 3.0 | 0.00 | 0.00 | 0.00 | 82 | 1015.5 |
| 20260906091045 | 77 | 24 | 2.0 | 3.0 | 0.00 | 0.00 | 0.00 | 82 | 1015.3 |
| 20260906090823 | 77 | 4 | 2.0 | 3.0 | 0.00 | 0.00 | 0.00 | 82 | 1015.5 |
| 20260906090702 | 77 | 4 | 3.0 | 4.0 | 0.00 | 0.00 | 0.00 | 82 | 1015.3 |
| 20260906090420 | 77 | 9 | 3.0 | 4.0 | 0.00 | 0.00 | 0.00 | 81 | 1015.5 |
| 20260906090218 | 77 | 16 | 3.0 | 3.0 | 0.00 | 0.00 | 0.00 | 81 | 1015.4 |
| 20260906090017 | 77 | 21 | 3.0 | 4.0 | 0.00 | 0.00 | 0.00 | 81 | 1015.2 |
| 20260906085816 | 77 | 21 | 3.0 | 3.0 | 0.00 | 0.00 | 0.00 | 82 | 1015.2 |
| 20260906085624 | 77 | 360 | 2.0 | 3.0 | 0.00 | 0.00 | 0.00 | 81 | 1015.1 |
| 20260906085423 | 78 | 5 | 2.0 | 2.0 | 0.00 | 0.00 | 0.00 | 81 | 1015.1 |
| 20260906085221 | 78 | 15 | 2.0 | 2.0 | 0.00 | 0.00 | 0.00 | 80 | 1015.1 |
| 20260906085021 | 78 | 44 | 2.0 | 3.0 | 0.00 | 0.00 | 0.00 | 80 | 1014.9 |
| 20260906084819 | 78 | 79 | 2.0 | 2.0 | 0.00 | 0.00 | 0.00 | 80 | 1015.1 |
| 20260906084618 | 78 | 82 | 2.0 | 2.0 | 0.00 | 0.00 | 0.00 | 80 | 1015.1 |
| 20260906084416 | 78 | 88 | 2.0 | 2.0 | 0.00 | 0.00 | 0.00 | 80 | 1015.0 |
| 20260906084224 | 78 | 86 | 2.0 | 2.0 | 0.00 | 0.00 | 0.00 | 80 | 1015.0 |
| 20260906084025 | 78 | 85 | 1.0 | 2.0 | 0.00 | 0.00 | 0.00 | 80 | 1014.8 |
| 20260906083841 | 78 | 77 | 1.0 | 2.0 | 0.00 | 0.00 | 0.00 | 79 | 1014.9 |
| 20260906083640 | 78 | 83 | 2.0 | 3.0 | 0.00 | 0.00 | 0.00 | 80 | 1014.9 |
| 20260906083438 | 78 | 85 | 2.0 | 3.0 | 0.00 | 0.00 | 0.00 | 81 | 1015.1 |
| 20260906083217 | 78 | 78 | 2.0 | 3.0 | 0.00 | 0.00 | 0.00 | 80 | 1015.1 |
| 20260906083015 | 78 | 72 | 2.0 | 3.0 | 0.00 | 0.00 | 0.00 | 80 | 1014.9 |
| 20260906082844 | 78 | 74 | 2.0 | 3.0 | 0.00 | 0.00 | 0.00 | 80 | 1014.9 |
| 20260906082703 | 79 | 46 | 2.0 | 3.0 | 0.00 | 0.00 | 0.00 | 79 | 1014.9 |
| 20260906082421 | 79 | 47 | 2.0 | 3.0 | 0.00 | 0.00 | 0.00 | 79 | 1014.9 |
| 20260906082220 | 79 | 59 | 1.0 | 2.0 | 0.00 | 0.00 | 0.00 | 79 | 1014.9 |
| 20260906082039 | 79 | 84 | 1.0 | 2.0 | 0.00 | 0.00 | 0.00 | 78 | 1014.9 |
| 20260906081817 | 79 | 95 | 1.0 | 2.0 | 0.00 | 0.00 | 0.00 | 78 | 1014.9 |
| 20260906081616 | 80 | 112 | 2.0 | 3.0 | 0.00 | 0.00 | 0.00 | 78 | 1014.9 |
| 20260906081424 | 80 | 114 | 3.0 | 4.0 | 0.00 | 0.00 | 0.00 | 78 | 1014.9 |
| 20260906081243 | 80 | 123 | 3.0 | 4.0 | 0.00 | 0.00 | 0.00 | 78 | 1014.8 |
| 20260906081042 | 80 | 128 | 3.0 | 4.0 | 0.00 | 0.00 | 0.00 | 78 | 1014.8 |
| 20260906080820 | 80 | 133 | 4.0 | 5.0 | 0.00 | 0.00 | 0.00 | 78 | 1014.7 |
| 20260906080619 | 80 | 142 | 5.0 | 6.0 | 0.00 | 0.00 | 0.00 | 78 | 1014.8 |
| 20260906080437 | 80 | 140 | 4.0 | 5.0 | 0.00 | 0.00 | 0.00 | 78 | 1014.9 |
| 20260906080236 | 80 | 144 | 5.0 | 6.0 | 0.00 | 0.00 | 0.00 | 78 | 1014.9 |
| 20260906080024 | 80 | 135 | 5.0 | 6.0 | 0.00 | 0.00 | 0.00 | 78 | 1014.9 |
| 20260906075823 | 80 | 122 | 5.0 | 6.0 | 0.00 | 0.00 | 0.00 | 78 | 1015.1 |
| 20260906075622 | 80 | 120 | 5.0 | 6.0 | 0.00 | 0.00 | 0.00 | 78 | 1014.7 |
| 20260906075420 | 80 | 123 | 5.0 | 6.0 | 0.00 | 0.00 | 0.00 | 77 | 1014.9 |
| 20260906075218 | 80 | 123 | 5.0 | 5.0 | 0.00 | 0.00 | 0.00 | 77 | 1014.9 |
| 20260906075017 | 80 | 117 | 4.0 | 5.0 | 0.00 | 0.00 | 0.00 | 77 | 1014.9 |
| 20260906074825 | 80 | 117 | 5.0 | 6.0 | 0.00 | 0.00 | 0.00 | 77 | 1014.7 |
| 20260906074624 | 80 | 111 | 4.0 | 5.0 | 0.00 | 0.00 | 0.00 | 77 | 1014.8 |
| 20260906074422 | 80 | 116 | 4.0 | 5.0 | 0.00 | 0.00 | 0.00 | 77 | 1014.8 |
| 20260906074221 | 80 | 124 | 3.0 | 4.0 | 0.00 | 0.00 | 0.00 | 77 | 1014.7 |
| 20260906074019 | 80 | 132 | 3.0 | 3.0 | 0.00 | 0.00 | 0.00 | 77 | 1014.7 |
| 20260906073818 | 80 | 138 | 3.0 | 3.0 | 0.00 | 0.00 | 0.00 | 77 | 1014.9 |
| 20260906073617 | 80 | 147 | 2.0 | 3.0 | 0.00 | 0.00 | 0.00 | 77 | 1014.9 |
| 20260906073505 | 80 | 159 | 2.0 | 3.0 | 0.00 | 0.00 | 0.00 | 77 | 1014.8 |
| 20260906073224 | 80 | 157 | 2.0 | 2.0 | 0.00 | 0.00 | 0.00 | 77 | 1014.8 |
| 20260906073023 | 80 | 153 | 2.0 | 3.0 | 0.00 | 0.00 | 0.00 | 76 | 1014.8 |
| 20260906072821 | 80 | 157 | 2.0 | 3.0 | 0.00 | 0.00 | 0.00 | 76 | 1015.1 |
| 20260906072619 | 80 | 151 | 3.0 | 4.0 | 0.00 | 0.00 | 0.00 | 76 | 1015.0 |
| 20260906072418 | 80 | 148 | 3.0 | 4.0 | 0.00 | 0.00 | 0.00 | 76 | 1014.9 |
| 20260906072217 | 80 | 146 | 3.0 | 4.0 | 0.00 | 0.00 | 0.00 | 76 | 1015.0 |
| 20260906072025 | 80 | 154 | 3.0 | 4.0 | 0.00 | 0.00 | 0.00 | 76 | 1015.1 |
| 20260906071824 | 80 | 160 | 3.0 | 3.0 | 0.00 | 0.00 | 0.00 | 76 | 1015.1 |
| 20260906071622 | 80 | 152 | 2.0 | 2.0 | 0.00 | 0.00 | 0.00 | 75 | 1014.9 |
| 20260906071421 | 80 | 149 | 2.0 | 2.0 | 0.00 | 0.00 | 0.00 | 75 | 1015.1 |
| 20260906071220 | 80 | 135 | 2.0 | 3.0 | 0.00 | 0.00 | 0.00 | 75 | 1015.1 |
| 20260906071018 | 81 | 120 | 2.0 | 3.0 | 0.00 | 0.00 | 0.00 | 75 | 1015.1 |
| 20260906070817 | 81 | 121 | 2.0 | 3.0 | 0.00 | 0.00 | 0.00 | 75 | 1015.1 |
| 20260906070625 | 80 | 111 | 2.0 | 2.0 | 0.00 | 0.00 | 0.00 | 75 | 1015.1 |
| 20260906070426 | 80 | 110 | 2.0 | 2.0 | 0.00 | 0.00 | 0.00 | 75 | 1015.2 |
| 20260906070222 | 80 | 109 | 2.0 | 2.0 | 0.00 | 0.00 | 0.00 | 75 | 1015.2 |
| 20260906070021 | 80 | 112 | 1.0 | 2.0 | 0.00 | 0.00 | 0.00 | 76 | 1015.0 |
| 20260906065819 | 80 | 100 | 1.0 | 2.0 | 0.00 | 0.00 | 0.00 | 76 | 1015.1 |
| 20260906065639 | 80 | 83 | 1.0 | 2.0 | 0.00 | 0.00 | 0.00 | 75 | 1015.3 |
| 20260906065417 | 80 | 56 | 1.0 | 2.0 | 0.00 | 0.00 | 0.00 | 75 | 1015.2 |
| 20260906065226 | 80 | 59 | 1.0 | 2.0 | 0.00 | 0.00 | 0.00 | 75 | 1015.3 |
| 20260906065024 | 80 | 51 | 2.0 | 2.0 | 0.00 | 0.00 | 0.00 | 75 | 1015.1 |
| 20260906064822 | 80 | 46 | 2.0 | 2.0 | 0.00 | 0.00 | 0.00 | 75 | 1015.4 |
| 20260906064621 | 80 | 93 | 1.0 | 1.0 | 0.00 | 0.00 | 0.00 | 75 | 1015.3 |
| 20260906064419 | 80 | 109 | 1.0 | 2.0 | 0.00 | 0.00 | 0.00 | 75 | 1015.3 |
| 20260906064218 | 81 | 123 | 0.0 | 2.0 | 0.00 | 0.00 | 0.00 | 74 | 1015.2 |
| 20260906064016 | 81 | 120 | 1.0 | 2.0 | 0.00 | 0.00 | 0.00 | 74 | 1015.3 |
| 20260906063845 | 81 | 119 | 0.0 | 1.0 | 0.00 | 0.00 | 0.00 | 73 | 1015.2 |
| 20260906063624 | 81 | 146 | 1.0 | 2.0 | 0.00 | 0.00 | 0.00 | 73 | 1015.1 |
| 20260906063442 | 81 | 157 | 2.0 | 3.0 | 0.00 | 0.00 | 0.00 | 73 | 1015.2 |
| 20260906063221 | 81 | 156 | 3.0 | 4.0 | 0.00 | 0.00 | 0.00 | 73 | 1015.1 |
| 20260906063039 | 81 | 138 | 3.0 | 4.0 | 0.00 | 0.00 | 0.00 | 73 | 1015.2 |
| 20260906062818 | 81 | 125 | 3.0 | 4.0 | 0.00 | 0.00 | 0.00 | 73 | 1015.4 |
| 20260906062617 | 82 | 114 | 3.0 | 4.0 | 0.00 | 0.00 | 0.00 | 73 | 1015.3 |
| 20260906062425 | 82 | 108 | 4.0 | 4.0 | 0.00 | 0.00 | 0.00 | 73 | 1015.2 |
| 20260906062244 | 82 | 125 | 3.0 | 4.0 | 0.00 | 0.00 | 0.00 | 73 | 1015.2 |
| 20260906062022 | 82 | 140 | 3.0 | 4.0 | 0.00 | 0.00 | 0.00 | 72 | 1015.4 |
| 20260906061821 | 82 | 147 | 4.0 | 5.0 | 0.00 | 0.00 | 0.00 | 72 | 1015.2 |
| 20260906061639 | 82 | 151 | 4.0 | 5.0 | 0.00 | 0.00 | 0.00 | 72 | 1015.3 |
| 20260906061418 | 82 | 152 | 4.0 | 5.0 | 0.00 | 0.00 | 0.00 | 72 | 1015.1 |
| 20260906061216 | 82 | 144 | 4.0 | 5.0 | 0.00 | 0.00 | 0.00 | 72 | 1015.3 |
| 20260906061026 | 82 | 138 | 5.0 | 6.0 | 0.00 | 0.00 | 0.00 | 72 | 1015.1 |
| 20260906060845 | 82 | 135 | 5.0 | 6.0 | 0.00 | 0.00 | 0.00 | 72 | 1015.3 |
| 20260906060622 | 82 | 145 | 5.0 | 6.0 | 0.00 | 0.00 | 0.00 | 71 | 1015.2 |
| 20260906060421 | 82 | 146 | 4.0 | 5.0 | 0.00 | 0.00 | 0.00 | 71 | 1015.4 |
| 20260906060222 | 82 | 158 | 4.0 | 5.0 | 0.00 | 0.00 | 0.00 | 71 | 1015.2 |
| 20260906060018 | 82 | 160 | 3.0 | 4.0 | 0.00 | 0.00 | 0.00 | 71 | 1015.3 |
| 20260906055816 | 82 | 154 | 4.0 | 5.0 | 0.00 | 0.00 | 0.00 | 71 | 1015.3 |
| 20260906055625 | 82 | 141 | 4.0 | 5.0 | 0.00 | 0.00 | 0.00 | 71 | 1015.3 |
| 20260906055424 | 82 | 141 | 5.0 | 6.0 | 0.00 | 0.00 | 0.00 | 71 | 1015.4 |
| 20260906055223 | 82 | 140 | 4.0 | 5.0 | 0.00 | 0.00 | 0.00 | 71 | 1015.4 |
| 20260906055023 | 82 | 137 | 4.0 | 4.0 | 0.00 | 0.00 | 0.00 | 71 | 1015.4 |
| 20260906054819 | 82 | 139 | 4.0 | 5.0 | 0.00 | 0.00 | 0.00 | 70 | 1015.1 |
| 20260906054638 | 82 | 142 | 4.0 | 4.0 | 0.00 | 0.00 | 0.00 | 70 | 1015.2 |
| 20260906054416 | 82 | 159 | 4.0 | 4.0 | 0.00 | 0.00 | 0.00 | 70 | 1015.2 |
| 20260906054245 | 82 | 166 | 3.0 | 4.0 | 0.00 | 0.00 | 0.00 | 70 | 1015.1 |
| 20260906054044 | 82 | 181 | 2.0 | 3.0 | 0.00 | 0.00 | 0.00 | 70 | 1015.2 |
| 20260906053822 | 82 | 185 | 2.0 | 3.0 | 0.00 | 0.00 | 0.00 | 70 | 1015.0 |
| 20260906053621 | 82 | 188 | 2.0 | 3.0 | 0.00 | 0.00 | 0.00 | 70 | 1015.2 |
| 20260906053439 | 82 | 187 | 2.0 | 2.0 | 0.00 | 0.00 | 0.00 | 70 | 1015.3 |
| 20260906053218 | 82 | 168 | 2.0 | 2.0 | 0.00 | 0.00 | 0.00 | 70 | 1015.1 |
| 20260906053016 | 82 | 183 | 2.0 | 3.0 | 0.00 | 0.00 | 0.00 | 70 | 1015.3 |
| 20260906052825 | 82 | 186 | 2.0 | 3.0 | 0.00 | 0.00 | 0.00 | 70 | 1015.1 |
| 20260906052623 | 83 | 194 | 2.0 | 3.0 | 0.00 | 0.00 | 0.00 | 69 | 1015.2 |
| 20260906052422 | 83 | 175 | 2.0 | 3.0 | 0.00 | 0.00 | 0.00 | 69 | 1015.4 |
| 20260906052221 | 83 | 163 | 3.0 | 4.0 | 0.00 | 0.00 | 0.00 | 69 | 1015.2 |
| 20260906052019 | 83 | 154 | 3.0 | 4.0 | 0.00 | 0.00 | 0.00 | 69 | 1015.4 |
| 20260906051818 | 83 | 154 | 3.0 | 4.0 | 0.00 | 0.00 | 0.00 | 69 | 1015.4 |
| 20260906051617 | 83 | 153 | 3.0 | 4.0 | 0.00 | 0.00 | 0.00 | 69 | 1015.4 |
| 20260906051425 | 83 | 154 | 3.0 | 4.0 | 0.00 | 0.00 | 0.00 | 69 | 1015.4 |
| 20260906051246 | 83 | 159 | 2.0 | 3.0 | 0.00 | 0.00 | 0.00 | 69 | 1015.4 |
| 20260906051042 | 83 | 174 | 2.0 | 2.0 | 0.00 | 0.00 | 0.00 | 69 | 1015.5 |
| 20260906050821 | 83 | 167 | 1.0 | 2.0 | 0.00 | 0.00 | 0.00 | 69 | 1015.3 |
| 20260906050619 | 83 | 173 | 1.0 | 2.0 | 0.00 | 0.00 | 0.00 | 69 | 1015.4 |
| 20260906050418 | 83 | 149 | 2.0 | 3.0 | 0.00 | 0.00 | 0.00 | 68 | 1015.4 |
| 20260906050216 | 83 | 151 | 3.0 | 3.0 | 0.00 | 0.00 | 0.00 | 68 | 1015.5 |
| 20260906050045 | 83 | 145 | 3.0 | 3.0 | 0.00 | 0.00 | 0.00 | 68 | 1015.5 |
| 20260906045823 | 83 | 144 | 3.0 | 4.0 | 0.00 | 0.00 | 0.00 | 68 | 1015.3 |
| 20260906045622 | 83 | 138 | 3.0 | 4.0 | 0.00 | 0.00 | 0.00 | 68 | 1015.4 |
| 20260906045421 | 84 | 141 | 3.0 | 4.0 | 0.00 | 0.00 | 0.00 | 68 | 1015.4 |
| 20260906045239 | 84 | 141 | 3.0 | 4.0 | 0.00 | 0.00 | 0.00 | 67 | 1015.3 |
| 20260906045018 | 84 | 142 | 3.0 | 4.0 | 0.00 | 0.00 | 0.00 | 67 | 1015.3 |
| 20260906044816 | 84 | 145 | 4.0 | 5.0 | 0.00 | 0.00 | 0.00 | 67 | 1015.4 |
| 20260906044625 | 84 | 151 | 4.0 | 5.0 | 0.00 | 0.00 | 0.00 | 67 | 1015.2 |
| 20260906044423 | 84 | 148 | 3.0 | 4.0 | 0.00 | 0.00 | 0.00 | 67 | 1015.2 |
| 20260906044222 | 84 | 146 | 3.0 | 4.0 | 0.00 | 0.00 | 0.00 | 66 | 1015.1 |
| 20260906044020 | 84 | 154 | 4.0 | 4.0 | 0.00 | 0.00 | 0.00 | 66 | 1015.3 |
| 20260906043819 | 84 | 158 | 3.0 | 4.0 | 0.00 | 0.00 | 0.00 | 67 | 1015.4 |
| 20260906043618 | 84 | 160 | 3.0 | 4.0 | 0.00 | 0.00 | 0.00 | 67 | 1015.3 |
| 20260906043416 | 84 | 160 | 3.0 | 4.0 | 0.00 | 0.00 | 0.00 | 66 | 1015.2 |
| 20260906043225 | 84 | 158 | 3.0 | 4.0 | 0.00 | 0.00 | 0.00 | 66 | 1015.2 |
| 20260906043023 | 84 | 151 | 3.0 | 4.0 | 0.00 | 0.00 | 0.00 | 66 | 1015.4 |
| 20260906042822 | 84 | 140 | 3.0 | 4.0 | 0.00 | 0.00 | 0.00 | 66 | 1015.4 |
| 20260906042621 | 84 | 139 | 3.0 | 4.0 | 0.00 | 0.00 | 0.00 | 66 | 1015.5 |
| 20260906042419 | 84 | 139 | 3.0 | 4.0 | 0.00 | 0.00 | 0.00 | 66 | 1015.3 |
| 20260906042218 | 84 | 149 | 3.0 | 4.0 | 0.00 | 0.00 | 0.00 | 66 | 1015.5 |
| 20260906042016 | 84 | 150 | 3.0 | 4.0 | 0.00 | 0.00 | 0.00 | 65 | 1015.4 |
| 20260906041825 | 85 | 141 | 3.0 | 4.0 | 0.00 | 0.00 | 0.00 | 65 | 1015.5 |
| 20260906041623 | 85 | 140 | 4.0 | 6.0 | 0.00 | 0.00 | 0.00 | 65 | 1015.2 |
| 20260906041422 | 85 | 137 | 5.0 | 6.0 | 0.00 | 0.00 | 0.00 | 65 | 1015.4 |
| 20260906041240 | 85 | 135 | 5.0 | 7.0 | 0.00 | 0.00 | 0.00 | 65 | 1015.3 |
| 20260906041019 | 85 | 145 | 5.0 | 6.0 | 0.00 | 0.00 | 0.00 | 65 | 1015.5 |
| 20260906040817 | 85 | 138 | 5.0 | 7.0 | 0.00 | 0.00 | 0.00 | 64 | 1015.5 |
| 20260906040617 | 85 | 136 | 5.0 | 7.0 | 0.00 | 0.00 | 0.00 | 64 | 1015.5 |
| 20260906040425 | 85 | 142 | 5.0 | 7.0 | 0.00 | 0.00 | 0.00 | 64 | 1015.5 |
| 20260906040224 | 85 | 144 | 5.0 | 6.0 | 0.00 | 0.00 | 0.00 | 64 | 1015.5 |
| 20260906040022 | 85 | 147 | 7.0 | 9.0 | 0.00 | 0.00 | 0.00 | 63 | 1015.5 |
| 20260906035821 | 85 | 147 | 5.0 | 6.0 | 0.00 | 0.00 | 0.00 | 63 | 1015.4 |
| 20260906035619 | 85 | 148 | 6.0 | 8.0 | 0.00 | 0.00 | 0.00 | 63 | 1015.3 |
| 20260906035417 | 85 | 147 | 7.0 | 9.0 | 0.00 | 0.00 | 0.00 | 63 | 1015.7 |
| 20260906035216 | 86 | 151 | 7.0 | 11.0 | 0.00 | 0.00 | 0.00 | 63 | 1015.5 |
| 20260906035025 | 86 | 149 | 6.0 | 9.0 | 0.00 | 0.00 | 0.00 | 62 | 1015.5 |
| 20260906034823 | 86 | 143 | 7.0 | 9.0 | 0.00 | 0.00 | 0.00 | 62 | 1015.3 |
| 20260906034622 | 86 | 143 | 5.0 | 7.0 | 0.00 | 0.00 | 0.00 | 62 | 1015.4 |
| 20260906034420 | 86 | 144 | 8.0 | 11.0 | 0.00 | 0.00 | 0.00 | 61 | 1015.4 |
| 20260906034259 | 86 | 142 | 6.0 | 8.0 | 0.00 | 0.00 | 0.00 | 61 | 1015.3 |
| 20260906034018 | 86 | 142 | 7.0 | 11.0 | 0.00 | 0.00 | 0.00 | 61 | 1015.1 |
| 20260906033817 | 86 | 138 | 7.0 | 10.0 | 0.00 | 0.00 | 0.00 | 60 | 1015.2 |
| 20260906033625 | 86 | 132 | 7.0 | 10.0 | 0.00 | 0.00 | 0.00 | 60 | 1015.3 |
| 20260906033423 | 86 | 134 | 7.0 | 9.0 | 0.00 | 0.00 | 0.00 | 60 | 1015.1 |
| 20260906033222 | 86 | 132 | 7.0 | 10.0 | 0.00 | 0.00 | 0.00 | 59 | 1015.4 |
| 20260906033021 | 87 | 139 | 7.0 | 10.0 | 0.00 | 0.00 | 0.00 | 59 | 1015.2 |
| 20260906032819 | 87 | 131 | 7.0 | 9.0 | 0.00 | 0.00 | 0.00 | 58 | 1015.2 |
| 20260906032638 | 87 | 138 | 7.0 | 10.0 | 0.00 | 0.00 | 0.00 | 58 | 1015.3 |
| 20260906032416 | 87 | 139 | 7.0 | 10.0 | 0.00 | 0.00 | 0.00 | 57 | 1015.2 |
| 20260906032225 | 87 | 136 | 7.0 | 11.0 | 0.00 | 0.00 | 0.00 | 57 | 1015.1 |
| 20260906032024 | 87 | 139 | 8.0 | 11.0 | 0.00 | 0.00 | 0.00 | 56 | 1015.4 |
| 20260906031822 | 87 | 145 | 7.0 | 9.0 | 0.00 | 0.00 | 0.00 | 55 | 1015.1 |
| 20260906031620 | 87 | 148 | 6.0 | 7.0 | 0.00 | 0.00 | 0.00 | 55 | 1015.2 |
| 20260906031419 | 87 | 142 | 5.0 | 6.0 | 0.00 | 0.00 | 0.00 | 54 | 1015.0 |
| 20260906031217 | 88 | 135 | 7.0 | 10.0 | 0.00 | 0.00 | 0.00 | 54 | 1015.1 |
| 20260906031016 | 88 | 137 | 7.0 | 9.0 | 0.00 | 0.00 | 0.00 | 54 | 1015.0 |
| 20260906030825 | 88 | 132 | 8.0 | 10.0 | 0.00 | 0.00 | 0.00 | 53 | 1015.0 |
| 20260906030624 | 88 | 132 | 8.0 | 11.0 | 0.00 | 0.00 | 0.00 | 53 | 1015.0 |
| 20260906030422 | 88 | 119 | 5.0 | 6.0 | 0.00 | 0.00 | 0.00 | 54 | 1014.9 |
| 20260906030221 | 87 | 106 | 5.0 | 6.0 | 0.00 | 0.00 | 0.00 | 55 | 1014.7 |
| 20260906030019 | 87 | 92 | 3.0 | 3.0 | 0.00 | 0.00 | 0.00 | 55 | 1015.0 |
| 20260906025817 | 87 | 88 | 3.0 | 3.0 | 0.00 | 0.00 | 0.00 | 56 | 1014.9 |
| 20260906025616 | 87 | 81 | 3.0 | 3.0 | 0.00 | 0.00 | 0.00 | 56 | 1014.9 |
| 20260906025425 | 87 | 76 | 2.0 | 3.0 | 0.00 | 0.00 | 0.00 | 55 | 1014.9 |
| 20260906025223 | 87 | 76 | 2.0 | 3.0 | 0.00 | 0.00 | 0.00 | 55 | 1015.1 |
| 20260906025042 | 88 | 80 | 2.0 | 3.0 | 0.00 | 0.00 | 0.00 | 54 | 1014.9 |
| 20260906024821 | 88 | 85 | 3.0 | 3.0 | 0.00 | 0.00 | 0.00 | 53 | 1015.0 |
| 20260906024619 | 88 | 90 | 2.0 | 3.0 | 0.00 | 0.00 | 0.00 | 53 | 1015.0 |
| 20260906024417 | 89 | 103 | 3.0 | 4.0 | 0.00 | 0.00 | 0.00 | 52 | 1014.9 |
| 20260906024216 | 89 | 111 | 3.0 | 4.0 | 0.00 | 0.00 | 0.00 | 52 | 1014.9 |
| 20260906024025 | 89 | 114 | 3.0 | 4.0 | 0.00 | 0.00 | 0.00 | 52 | 1014.8 |
| 20260906023904 | 89 | 117 | 3.0 | 3.0 | 0.00 | 0.00 | 0.00 | 52 | 1014.8 |
| 20260906023622 | 89 | 114 | 3.0 | 3.0 | 0.00 | 0.00 | 0.00 | 52 | 1014.8 |
| 20260906023421 | 89 | 110 | 3.0 | 4.0 | 0.00 | 0.00 | 0.00 | 52 | 1014.7 |
| 20260906023219 | 89 | 114 | 3.0 | 4.0 | 0.00 | 0.00 | 0.00 | 51 | 1014.7 |
| 20260906023018 | 89 | 112 | 4.0 | 4.0 | 0.00 | 0.00 | 0.00 | 51 | 1014.6 |
| 20260906022816 | 89 | 104 | 4.0 | 5.0 | 0.00 | 0.00 | 0.00 | 51 | 1014.4 |
| 20260906022625 | 90 | 103 | 4.0 | 5.0 | 0.00 | 0.00 | 0.00 | 51 | 1014.4 |
| 20260906022424 | 90 | 109 | 4.0 | 4.0 | 0.00 | 0.00 | 0.00 | 51 | 1014.5 |
| 20260906022222 | 90 | 108 | 4.0 | 5.0 | 0.00 | 0.00 | 0.00 | 51 | 1014.4 |
| 20260906022020 | 90 | 111 | 5.0 | 5.0 | 0.00 | 0.00 | 0.00 | 51 | 1014.3 |
| 20260906021839 | 90 | 105 | 4.0 | 6.0 | 0.00 | 0.00 | 0.00 | 50 | 1014.3 |
| 20260906021618 | 90 | 107 | 5.0 | 6.0 | 0.00 | 0.00 | 0.00 | 50 | 1014.4 |
| 20260906021437 | 90 | 106 | 5.0 | 6.0 | 0.00 | 0.00 | 0.00 | 50 | 1014.3 |
| 20260906021225 | 90 | 110 | 6.0 | 6.0 | 0.00 | 0.00 | 0.00 | 50 | 1014.3 |
| 20260906021023 | 90 | 109 | 5.0 | 6.0 | 0.00 | 0.00 | 0.00 | 50 | 1014.2 |
| 20260906020822 | 90 | 106 | 5.0 | 6.0 | 0.00 | 0.00 | 0.00 | 50 | 1014.2 |
| 20260906020620 | 90 | 113 | 4.0 | 5.0 | 0.00 | 0.00 | 0.00 | 50 | 1014.3 |
| 20260906020439 | 90 | 115 | 4.0 | 5.0 | 0.00 | 0.00 | 0.00 | 50 | 1014.2 |
| 20260906020238 | 90 | 110 | 4.0 | 5.0 | 0.00 | 0.00 | 0.00 | 50 | 1014.2 |
| 20260906020016 | 90 | 116 | 4.0 | 5.0 | 0.00 | 0.00 | 0.00 | 50 | 1014.3 |
| 20260906015825 | 90 | 117 | 4.0 | 6.0 | 0.00 | 0.00 | 0.00 | 50 | 1014.2 |
| 20260906015624 | 90 | 117 | 4.0 | 5.0 | 0.00 | 0.00 | 0.00 | 50 | 1014.1 |
| 20260906015423 | 90 | 116 | 4.0 | 5.0 | 0.00 | 0.00 | 0.00 | 50 | 1014.1 |
| 20260906015221 | 90 | 111 | 4.0 | 5.0 | 0.00 | 0.00 | 0.00 | 50 | 1014.1 |
| 20260906015039 | 90 | 120 | 4.0 | 5.0 | 0.00 | 0.00 | 0.00 | 50 | 1014.0 |
| 20260906014818 | 90 | 116 | 4.0 | 5.0 | 0.00 | 0.00 | 0.00 | 50 | 1014.1 |
| 20260906014616 | 91 | 113 | 4.0 | 5.0 | 0.00 | 0.00 | 0.00 | 50 | 1014.1 |
| 20260906014426 | 91 | 112 | 4.0 | 6.0 | 0.00 | 0.00 | 0.00 | 49 | 1014.1 |
| 20260906014224 | 91 | 111 | 5.0 | 6.0 | 0.00 | 0.00 | 0.00 | 49 | 1014.1 |
| 20260906014022 | 91 | 107 | 4.0 | 5.0 | 0.00 | 0.00 | 0.00 | 49 | 1014.0 |
| 20260906013841 | 91 | 111 | 5.0 | 6.0 | 0.00 | 0.00 | 0.00 | 49 | 1014.0 |
| 20260906013620 | 91 | 107 | 5.0 | 6.0 | 0.00 | 0.00 | 0.00 | 49 | 1014.1 |
| 20260906013418 | 91 | 106 | 4.0 | 6.0 | 0.00 | 0.00 | 0.00 | 49 | 1013.9 |
| 20260906013219 | 91 | 112 | 5.0 | 6.0 | 0.00 | 0.00 | 0.00 | 49 | 1013.8 |
| 20260906013025 | 91 | 109 | 5.0 | 6.0 | 0.00 | 0.00 | 0.00 | 49 | 1013.9 |
| 20260906012823 | 90 | 113 | 4.0 | 5.0 | 0.00 | 0.00 | 0.00 | 50 | 1013.8 |
| 20260906012642 | 91 | 119 | 4.0 | 5.0 | 0.00 | 0.00 | 0.00 | 49 | 1014.0 |
| 20260906012420 | 91 | 124 | 4.0 | 5.0 | 0.00 | 0.00 | 0.00 | 49 | 1013.8 |
| 20260906012239 | 91 | 124 | 5.0 | 6.0 | 0.00 | 0.00 | 0.00 | 49 | 1013.9 |
| 20260906012018 | 91 | 124 | 4.0 | 5.0 | 0.00 | 0.00 | 0.00 | 49 | 1013.8 |
| 20260906011817 | 91 | 126 | 5.0 | 6.0 | 0.00 | 0.00 | 0.00 | 49 | 1013.9 |
| 20260906011625 | 91 | 130 | 5.0 | 5.0 | 0.00 | 0.00 | 0.00 | 49 | 1013.8 |
| 20260906011423 | 91 | 130 | 4.0 | 5.0 | 0.00 | 0.00 | 0.00 | 49 | 1013.8 |
| 20260906011222 | 91 | 129 | 4.0 | 5.0 | 0.00 | 0.00 | 0.00 | 49 | 1013.7 |
| 20260906011020 | 91 | 130 | 4.0 | 5.0 | 0.00 | 0.00 | 0.00 | 48 | 1013.7 |
| 20260906010840 | 91 | 123 | 4.0 | 5.0 | 0.00 | 0.00 | 0.00 | 48 | 1013.7 |
| 20260906010618 | 91 | 126 | 4.0 | 5.0 | 0.00 | 0.00 | 0.00 | 48 | 1013.7 |
| 20260906010416 | 91 | 122 | 3.0 | 4.0 | 0.00 | 0.00 | 0.00 | 48 | 1013.9 |
| 20260906010225 | 92 | 121 | 3.0 | 4.0 | 0.00 | 0.00 | 0.00 | 48 | 1013.6 |
| 20260906010023 | 92 | 128 | 4.0 | 6.0 | 0.00 | 0.00 | 0.00 | 48 | 1013.6 |
| 20260906005822 | 92 | 123 | 3.0 | 5.0 | 0.00 | 0.00 | 0.00 | 47 | 1013.7 |
| 20260906005621 | 92 | 122 | 4.0 | 5.0 | 0.00 | 0.00 | 0.00 | 47 | 1013.6 |
| 20260906005421 | 92 | 120 | 4.0 | 6.0 | 0.00 | 0.00 | 0.00 | 47 | 1013.7 |
| 20260906005218 | 92 | 117 | 4.0 | 6.0 | 0.00 | 0.00 | 0.00 | 47 | 1013.7 |
| 20260906005016 | 93 | 123 | 3.0 | 5.0 | 0.00 | 0.00 | 0.00 | 46 | 1013.6 |
| 20260906004825 | 93 | 122 | 3.0 | 5.0 | 0.00 | 0.00 | 0.00 | 46 | 1013.6 |
| 20260906004623 | 93 | 124 | 3.0 | 5.0 | 0.00 | 0.00 | 0.00 | 46 | 1013.6 |
| 20260906004422 | 93 | 126 | 3.0 | 5.0 | 0.00 | 0.00 | 0.00 | 45 | 1013.7 |
| 20260906004220 | 94 | 121 | 3.0 | 4.0 | 0.00 | 0.00 | 0.00 | 45 | 1013.6 |
| 20260906004039 | 94 | 124 | 3.0 | 4.0 | 0.00 | 0.00 | 0.00 | 45 | 1013.7 |
| 20260906003838 | 94 | 115 | 5.0 | 6.0 | 0.00 | 0.00 | 0.00 | 45 | 1013.6 |
| 20260906003617 | 94 | 110 | 4.0 | 6.0 | 0.00 | 0.00 | 0.00 | 44 | 1013.6 |
| 20260906003425 | 94 | 123 | 3.0 | 4.0 | 0.00 | 0.00 | 0.00 | 44 | 1013.7 |
| 20260906003223 | 95 | 125 | 3.0 | 4.0 | 0.00 | 0.00 | 0.00 | 43 | 1013.6 |
| 20260906003022 | 95 | 118 | 4.0 | 5.0 | 0.00 | 0.00 | 0.00 | 43 | 1013.6 |
| 20260906002821 | 95 | 120 | 4.0 | 7.0 | 0.00 | 0.00 | 0.00 | 43 | 1013.7 |
| 20260906002619 | 95 | 120 | 5.0 | 6.0 | 0.00 | 0.00 | 0.00 | 43 | 1013.6 |
| 20260906002417 | 95 | 121 | 3.0 | 4.0 | 0.00 | 0.00 | 0.00 | 42 | 1013.6 |
| 20260906002216 | 96 | 113 | 4.0 | 5.0 | 0.00 | 0.00 | 0.00 | 42 | 1013.5 |
| 20260906002025 | 96 | 125 | 4.0 | 5.0 | 0.00 | 0.00 | 0.00 | 42 | 1013.6 |
| 20260906001823 | 96 | 117 | 7.0 | 8.0 | 0.00 | 0.00 | 0.00 | 42 | 1013.8 |
| 20260906001622 | 96 | 110 | 6.0 | 8.0 | 0.00 | 0.00 | 0.00 | 41 | 1013.6 |
| 20260906001420 | 96 | 125 | 5.0 | 8.0 | 0.00 | 0.00 | 0.00 | 41 | 1013.7 |
| 20260906001219 | 97 | 112 | 5.0 | 7.0 | 0.00 | 0.00 | 0.00 | 41 | 1013.4 |
| 20260906001017 | 97 | 122 | 3.0 | 4.0 | 0.00 | 0.00 | 0.00 | 40 | 1013.6 |
| 20260906000817 | 97 | 144 | 3.0 | 3.0 | 0.00 | 0.00 | 0.00 | 40 | 1013.4 |
| 20260906000624 | 97 | 141 | 4.0 | 5.0 | 0.00 | 0.00 | 0.00 | 40 | 1013.6 |
| 20260906000425 | 97 | 132 | 5.0 | 8.0 | 0.00 | 0.00 | 0.00 | 40 | 1013.6 |
| 20260906000222 | 97 | 122 | 5.0 | 8.0 | 0.00 | 0.00 | 0.00 | 40 | 1013.5 |
| 20260906000021 | 97 | 129 | 5.0 | 6.0 | 0.00 | 0.00 | 0.00 | 40 | 1013.5 |
| 20260905235840 | 97 | 124 | 3.0 | 4.0 | 0.00 | 0.00 | 0.00 | 40 | 1013.4 |
| 20260905235639 | 97 | 144 | 6.0 | 8.0 | 0.00 | 0.00 | 0.00 | 40 | 1013.2 |
| 20260905235416 | 98 | 134 | 5.0 | 6.0 | 0.00 | 0.00 | 0.00 | 39 | 1013.5 |
| 20260905235245 | 98 | 138 | 4.0 | 5.0 | 0.00 | 0.00 | 0.00 | 39 | 1013.3 |
| 20260905235023 | 98 | 149 | 4.0 | 6.0 | 0.00 | 0.00 | 0.00 | 38 | 1013.4 |
| 20260905234822 | 98 | 142 | 3.0 | 4.0 | 0.00 | 0.00 | 0.00 | 38 | 1013.4 |
| 20260905234621 | 97 | 137 | 4.0 | 6.0 | 0.00 | 0.00 | 0.00 | 38 | 1013.6 |
| 20260905234419 | 98 | 106 | 4.0 | 7.0 | 0.00 | 0.00 | 0.00 | 38 | 1013.4 |
| 20260905234217 | 98 | 110 | 4.0 | 5.0 | 0.00 | 0.00 | 0.00 | 38 | 1013.5 |
| 20260905234016 | 98 | 118 | 5.0 | 8.0 | 0.00 | 0.00 | 0.00 | 38 | 1013.4 |
| 20260905233845 | 98 | 117 | 6.0 | 7.0 | 0.00 | 0.00 | 0.00 | 38 | 1013.5 |
| 20260905233623 | 98 | 103 | 4.0 | 7.0 | 0.00 | 0.00 | 0.00 | 39 | 1013.3 |
| 20260905233442 | 98 | 101 | 4.0 | 6.0 | 0.00 | 0.00 | 0.00 | 39 | 1013.4 |
| 20260905233220 | 98 | 101 | 6.0 | 8.0 | 0.00 | 0.00 | 0.00 | 39 | 1013.6 |
| 20260905233039 | 98 | 97 | 5.0 | 9.0 | 0.00 | 0.00 | 0.00 | 39 | 1013.2 |
| 20260905232837 | 98 | 131 | 5.0 | 7.0 | 0.00 | 0.00 | 0.00 | 39 | 1013.3 |
| 20260905232616 | 97 | 106 | 8.0 | 10.0 | 0.00 | 0.00 | 0.00 | 39 | 1013.4 |
| 20260905232424 | 98 | 111 | 7.0 | 10.0 | 0.00 | 0.00 | 0.00 | 39 | 1013.5 |
| 20260905232226 | 99 | 105 | 3.0 | 5.0 | 0.00 | 0.00 | 0.00 | 39 | 1013.4 |
| 20260905232022 | 99 | 62 | 3.0 | 5.0 | 0.00 | 0.00 | 0.00 | 39 | 1013.3 |
| 20260905231821 | 99 | 78 | 3.0 | 5.0 | 0.00 | 0.00 | 0.00 | 39 | 1013.4 |
| 20260905231619 | 99 | 85 | 5.0 | 8.0 | 0.00 | 0.00 | 0.00 | 38 | 1013.6 |
| 20260905231417 | 99 | 104 | 4.0 | 6.0 | 0.00 | 0.00 | 0.00 | 39 | 1013.3 |
| 20260905231216 | 98 | 103 | 4.0 | 6.0 | 0.00 | 0.00 | 0.00 | 39 | 1013.5 |
| 20260905231025 | 98 | 86 | 7.0 | 10.0 | 0.00 | 0.00 | 0.00 | 39 | 1013.4 |
| 20260905230823 | 98 | 73 | 10.0 | 13.0 | 0.00 | 0.00 | 0.00 | 39 | 1013.3 |
| 20260905230642 | 99 | 92 | 5.0 | 8.0 | 0.00 | 0.00 | 0.00 | 39 | 1013.3 |
| 20260905230420 | 99 | 96 | 4.0 | 6.0 | 0.00 | 0.00 | 0.00 | 38 | 1013.3 |
| 20260905230219 | 100 | 80 | 4.0 | 6.0 | 0.00 | 0.00 | 0.00 | 38 | 1013.3 |
| 20260905230017 | 100 | 135 | 2.0 | 4.0 | 0.00 | 0.00 | 0.00 | 37 | 1013.2 |
| 20260905225815 | 100 | 123 | 5.0 | 6.0 | 0.00 | 0.00 | 0.00 | 38 | 1013.5 |
| 20260905225625 | 100 | 174 | 3.0 | 4.0 | 0.00 | 0.00 | 0.00 | 37 | 1013.4 |
| 20260905225423 | 100 | 169 | 2.0 | 4.0 | 0.00 | 0.00 | 0.00 | 37 | 1013.2 |
| 20260905225221 | 100 | 121 | 1.0 | 2.0 | 0.00 | 0.00 | 0.00 | 37 | 1013.5 |
| 20260905225020 | 98 | 135 | 3.0 | 6.0 | 0.00 | 0.00 | 0.00 | 39 | 1013.3 |
| 20260905224819 | 98 | 141 | 5.0 | 9.0 | 0.00 | 0.00 | 0.00 | 39 | 1013.4 |
| 20260905224618 | 98 | 127 | 8.0 | 10.0 | 0.00 | 0.00 | 0.00 | 39 | 1013.5 |
| 20260905224416 | 99 | 136 | 8.0 | 11.0 | 0.00 | 0.00 | 0.00 | 39 | 1013.5 |
| 20260905224224 | 99 | 193 | 7.0 | 10.0 | 0.00 | 0.00 | 0.00 | 39 | 1013.4 |
| 20260905224022 | 99 | 164 | 8.0 | 10.0 | 0.00 | 0.00 | 0.00 | 39 | 1013.4 |
| 20260905223821 | 99 | 153 | 7.0 | 9.0 | 0.00 | 0.00 | 0.00 | 38 | 1013.4 |
| 20260905223620 | 98 | 129 | 4.0 | 6.0 | 0.00 | 0.00 | 0.00 | 39 | 1013.5 |
| 20260905223418 | 99 | 116 | 7.0 | 10.0 | 0.00 | 0.00 | 0.00 | 39 | 1013.4 |
| 20260905223217 | 100 | 136 | 5.0 | 8.0 | 0.00 | 0.00 | 0.00 | 39 | 1013.5 |
| 20260905223016 | 100 | 92 | 4.0 | 7.0 | 0.00 | 0.00 | 0.00 | 38 | 1013.5 |
| 20260905222824 | 99 | 121 | 5.0 | 9.0 | 0.00 | 0.00 | 0.00 | 39 | 1013.4 |
| 20260905222622 | 99 | 77 | 5.0 | 10.0 | 0.00 | 0.00 | 0.00 | 38 | 1013.4 |
| 20260905222421 | 100 | 100 | 6.0 | 9.0 | 0.00 | 0.00 | 0.00 | 38 | 1013.5 |
| 20260905222300 | 101 | 113 | 8.0 | 12.0 | 0.00 | 0.00 | 0.00 | 38 | 1013.4 |
| 20260905222018 | 100 | 125 | 3.0 | 4.0 | 0.00 | 0.00 | 0.00 | 38 | 1013.6 |
| 20260905221817 | 100 | 100 | 4.0 | 6.0 | 0.00 | 0.00 | 0.00 | 38 | 1013.5 |
| 20260905221625 | 99 | 113 | 3.0 | 6.0 | 0.00 | 0.00 | 0.00 | 39 | 1013.5 |
| 20260905221424 | 99 | 95 | 4.0 | 7.0 | 0.00 | 0.00 | 0.00 | 39 | 1013.4 |
| 20260905221222 | 99 | 90 | 3.0 | 7.0 | 0.00 | 0.00 | 0.00 | 40 | 1013.6 |
| 20260905221041 | 100 | 107 | 7.0 | 11.0 | 0.00 | 0.00 | 0.00 | 39 | 1013.5 |
| 20260905220839 | 100 | 97 | 4.0 | 7.0 | 0.00 | 0.00 | 0.00 | 39 | 1013.4 |
| 20260905220618 | 99 | 140 | 5.0 | 8.0 | 0.00 | 0.00 | 0.00 | 40 | 1013.6 |